GEFSSE_500_meanwind_096.txt.gz
Wind_Speed
34 35 34 32 30 27 25 23 22 20 18 17 17 16 14 13 12 11 10 9 7 6 5 4 4 3 3 2 2 2 2 2 1 1 1 2 3 4 5 6 7 8 9
35 36 36 35 33 30 28 26 24 22 21 19 18 17 16 14 13 13 12 10 9 8 7 6 5 5 4 3 3 3 3 3 3 2 2 3 4 5 5 6 7 8 9
36 37 38 37 35 33 30 28 27 25 23 21 20 19 17 16 15 14 14 12 11 10 9 8 7 6 5 5 4 4 4 4 4 4 3 4 4 5 6 6 7 8 10
38 38 40 40 38 36 33 31 29 28 25 24 22 21 19 18 17 16 15 14 13 12 10 9 8 8 7 6 6 5 5 5 5 5 5 4 5 6 6 7 8 9 10
41 40 41 42 41 38 36 33 32 30 28 26 24 23 22 20 19 18 17 16 15 13 12 11 10 9 8 8 7 6 6 6 6 6 6 6 6 6 7 8 9 10 11
45 42 43 44 43 41 39 36 34 32 30 28 27 25 24 22 20 19 19 18 16 15 14 13 12 11 10 9 8 8 8 8 7 7 7 7 7 7 8 9 9 10 11
47 45 45 46 46 44 42 39 36 34 32 31 29 27 26 24 22 21 20 20 18 17 16 15 14 13 12 11 10 10 9 9 9 9 9 9 9 9 9 10 11 12 13
49 48 48 48 48 47 44 42 39 37 35 33 32 30 28 26 24 23 22 21 20 18 17 16 15 14 13 12 11 11 11 10 10 10 10 10 10 11 11 11 12 13 14
51 50 51 51 50 49 47 45 42 39 37 36 34 32 30 28 27 25 24 23 22 20 19 18 17 16 15 14 13 12 12 12 12 12 12 12 12 12 13 13 14 14 15
52 52 52 53 53 52 50 47 44 42 40 39 37 34 32 30 29 27 25 24 23 22 21 20 19 18 16 15 15 14 13 13 13 13 14 14 14 14 14 15 15 16 17
53 54 54 55 54 54 52 50 47 45 43 41 39 37 34 32 30 29 27 26 25 24 23 22 20 19 18 17 17 16 15 15 15 15 15 16 16 16 16 17 17 18 19
53 55 56 56 55 56 55 52 50 47 45 43 41 39 36 34 32 31 29 28 27 26 25 23 22 21 20 19 19 18 17 17 17 17 17 17 17 18 18 18 19 20 21
55 55 56 57 56 56 57 55 53 50 48 45 43 41 39 36 35 33 31 30 29 28 26 25 24 23 22 21 21 20 19 19 19 19 19 19 19 19 20 20 21 21 22
56 57 57 58 56 55 56 56 55 53 50 48 46 43 41 38 36 35 33 32 31 29 28 27 26 25 24 23 23 22 21 21 21 21 21 21 21 21 22 22 23 23 24
57 58 59 59 58 56 56 57 57 55 53 50 48 45 43 40 39 37 35 34 33 31 30 28 27 27 26 25 25 24 23 23 22 22 23 23 23 23 24 24 25 25 26
56 57 59 59 58 56 55 54 55 57 55 53 50 47 45 43 41 39 37 36 34 33 32 30 29 28 27 27 27 26 25 25 25 24 24 25 25 25 26 26 27 27 28
57 58 57 59 59 57 55 53 53 56 57 55 52 50 47 45 43 41 39 38 36 35 34 32 31 30 29 29 28 27 27 27 26 26 26 27 27 27 28 28 29 29 30
56 57 57 56 57 57 57 53 53 55 57 56 54 51 49 47 45 43 41 40 38 37 35 34 33 32 31 30 30 29 29 29 28 28 28 28 29 29 30 30 30 31 32
56 56 56 56 56 56 57 54 53 53 55 56 55 53 51 49 47 45 43 42 41 39 37 36 35 34 33 32 31 30 30 31 30 30 30 30 30 31 31 31 32 32 32
56 54 54 54 54 54 54 54 52 51 53 56 55 54 52 50 48 46 45 44 43 41 40 39 37 36 34 33 32 32 32 32 32 32 32 32 32 32 32 32 32 32 32
52 51 52 54 52 50 52 52 51 50 50 54 55 54 53 51 49 48 46 46 45 43 41 41 39 38 36 35 34 34 34 33 33 34 34 34 33 33 33 33 33 33 33
48 49 50 50 48 48 49 49 47 47 48 51 54 54 53 52 50 49 48 47 45 43 43 42 41 39 37 36 36 35 35 35 35 35 35 35 35 34 34 34 33 33 33
43 44 48 49 48 46 45 46 47 47 48 49 51 52 52 52 52 51 50 48 47 45 44 43 41 40 38 37 37 37 37 36 36 36 36 36 35 34 33 33 33 33 33
37 39 41 43 45 46 44 44 45 46 47 48 49 49 50 51 52 52 50 49 48 46 44 44 43 42 39 38 37 37 37 37 37 36 36 35 35 34 34 34 34 34 34
34 34 35 38 40 40 41 43 42 42 43 44 46 46 45 45 47 48 49 49 48 47 46 44 43 42 40 39 38 37 37 37 37 37 36 36 36 36 35 35 35 35 36
29 31 33 36 36 37 37 39 41 40 39 41 42 43 43 44 45 46 48 48 47 47 45 44 43 42 41 41 39 40 39 38 39 38 37 36 35 35 35 35 35 36 37

GEFSSE_500_meanwind_102.txt.gz
Wind_Speed
30 29 29 29 28 27 25 24 22 21 19 18 16 15 14 14 13 12 10 10 9 8 7 7 6 5 5 5 4 5 5 5 4 4 3 2 2 3 4 4 5 6 7
31 30 30 30 30 29 28 27 25 24 22 20 19 17 17 16 15 14 12 11 11 10 9 8 7 7 6 6 6 6 6 6 5 5 5 4 3 3 4 4 5 6 7
32 31 31 31 31 30 30 29 28 26 25 23 21 20 19 18 17 16 14 13 12 12 11 10 9 8 8 7 7 7 7 6 6 6 6 5 5 5 5 5 6 7 7
33 33 32 33 32 32 32 31 30 29 28 26 24 23 21 20 19 18 17 15 14 13 13 12 11 10 9 9 9 8 8 7 7 7 7 7 6 6 6 6 7 7 8
34 33 34 35 34 35 34 33 32 31 30 28 27 26 24 22 21 20 18 17 16 15 15 14 13 12 11 10 10 10 9 9 8 8 8 8 7 7 7 7 8 8 9
35 35 35 36 37 37 37 37 35 33 32 31 29 28 27 25 23 22 21 19 18 17 16 16 14 13 12 12 12 11 11 10 10 9 9 9 9 9 9 9 9 10 10
37 36 36 37 38 39 39 38 38 36 35 34 32 31 29 27 26 24 23 22 20 19 18 17 16 15 14 14 13 13 12 12 11 11 11 11 11 10 10 10 11 11 12
39 38 38 39 40 41 41 40 40 39 37 36 35 33 32 30 28 27 25 24 22 21 20 19 18 17 16 15 15 14 14 13 13 13 13 12 12 12 12 12 12 13 13
41 40 39 40 41 42 43 42 42 41 40 39 37 36 34 32 30 29 27 26 24 23 22 21 20 18 17 17 16 16 15 15 14 14 14 14 14 14 14 14 14 15 15
43 42 41 41 42 43 44 44 44 43 42 41 40 38 36 34 33 31 29 28 27 25 24 22 21 20 19 18 18 17 17 16 16 16 16 15 15 15 16 16 16 16 17
44 43 43 42 42 44 45 46 46 45 44 44 42 41 39 37 35 33 32 30 29 27 25 24 23 22 21 20 19 19 19 18 18 18 17 17 17 17 17 17 18 18 18
46 45 45 45 45 45 46 47 47 47 47 46 45 43 41 39 37 36 34 32 31 29 27 26 25 24 23 22 21 21 21 20 20 20 19 19 19 19 19 19 19 20 20
49 48 47 46 47 47 47 47 48 48 48 48 47 46 44 42 39 38 36 34 33 31 29 28 26 26 25 24 23 22 22 22 22 21 21 21 21 21 21 21 21 22 22
51 49 48 46 47 47 47 48 50 50 49 49 49 48 46 44 42 40 38 36 35 33 32 30 29 28 27 26 25 24 24 24 23 23 23 23 23 23 23 23 23 23 24
54 52 52 49 48 48 48 48 50 51 50 51 51 50 48 46 44 42 40 39 37 35 34 33 31 30 28 28 27 26 26 26 25 25 25 25 25 25 25 25 25 25 26
56 54 54 54 52 51 51 51 50 52 53 52 52 52 50 49 47 45 43 41 39 38 36 35 34 32 31 29 29 28 28 28 27 27 27 26 27 27 27 27 27 27 27
58 57 56 56 54 52 53 53 52 53 55 53 51 53 53 51 49 47 45 43 42 40 39 37 36 34 33 32 31 30 30 29 29 29 28 28 28 28 28 28 29 29 29
60 59 58 56 55 53 53 54 54 54 55 55 53 53 54 54 52 49 48 46 44 43 41 39 38 36 35 34 34 33 32 31 30 30 30 30 30 30 30 30 30 30 30
60 59 59 57 56 55 53 54 54 54 54 55 55 54 54 54 54 52 50 48 46 45 43 41 40 38 38 37 36 35 34 33 32 32 32 32 32 32 31 32 32 32 32
60 59 58 58 57 57 55 53 52 53 54 54 55 55 54 54 54 54 52 51 48 47 45 44 42 41 40 39 38 38 37 35 34 34 34 33 34 33 33 33 33 33 32
57 58 59 58 57 58 57 54 53 52 52 53 55 55 56 55 55 54 53 53 51 49 48 46 45 44 43 42 41 40 39 38 37 36 36 36 36 35 35 34 34 34 34
54 55 57 58 58 57 56 54 54 52 53 51 52 52 53 54 55 53 53 53 52 51 50 50 48 47 46 44 43 42 41 39 38 38 38 37 38 37 36 35 35 35 35
47 50 53 55 57 57 57 53 53 52 52 51 51 50 50 50 52 52 52 53 54 54 52 51 51 49 48 46 44 43 42 41 41 41 39 39 38 38 37 36 36 36 36
39 43 46 50 52 54 54 53 53 52 51 49 48 48 50 49 49 50 50 52 53 54 54 52 52 50 49 47 45 44 43 42 41 40 39 38 38 38 38 37 37 37 36
31 36 38 42 46 48 49 50 51 51 50 48 47 48 49 49 50 52 50 50 50 51 51 51 50 49 49 48 47 45 44 43 43 42 40 40 39 39 39 38 38 38 38
23 28 33 38 39 42 42 45 49 49 49 49 47 46 48 48 48 51 52 50 49 49 49 49 48 47 48 47 46 46 45 44 44 43 41 41 41 40 40 40 40 40 40

GEFSSE_500_meanwind_108.txt.gz
Wind_Speed
25 26 26 27 26 26 25 24 22 20 19 17 16 14 12 11 10 9 8 7 6 6 5 5 4 4 4 4 3 3 4 4 4 4 4 4 5 5 6 6 7 8 8
27 26 26 27 27 27 26 25 24 23 22 20 19 17 15 14 12 11 10 9 8 7 7 6 6 5 5 5 5 5 5 5 5 5 5 6 6 6 6 7 7 8 9
29 28 28 27 28 29 29 28 26 25 24 23 21 20 18 17 15 14 13 12 10 9 8 8 7 7 6 6 6 6 6 6 6 6 6 7 7 7 7 7 8 9 9
31 30 30 29 29 29 30 30 29 28 26 25 24 22 21 20 18 16 15 14 13 12 11 9 9 8 8 8 7 7 7 7 7 7 7 8 8 8 8 9 9 9 10
32 32 32 31 31 30 31 32 31 30 29 27 26 25 23 22 21 19 18 16 15 14 13 11 11 10 10 9 9 9 8 8 8 9 9 9 9 9 10 10 10 11 11
35 34 33 33 33 32 32 33 33 33 32 31 29 27 26 25 23 22 21 19 17 16 15 14 13 12 11 10 10 10 10 10 10 10 10 10 10 11 11 11 11 12 12
38 37 36 35 34 34 34 34 35 34 34 34 32 30 29 27 26 24 23 22 20 18 17 16 15 14 13 12 12 11 11 11 12 12 12 12 12 12 12 12 13 13 14
40 39 38 37 36 36 36 36 37 36 36 36 35 33 32 30 28 27 25 24 23 21 19 18 17 16 15 14 13 13 13 13 13 13 13 13 13 14 14 14 15 15 16
43 42 40 39 38 38 37 37 38 38 38 37 37 36 34 33 31 29 28 27 25 24 22 20 19 18 17 16 15 15 14 14 14 15 15 15 15 15 16 16 17 17 18
46 45 43 42 41 40 39 39 39 40 40 39 38 37 37 35 34 32 30 29 28 26 24 23 21 20 19 18 17 17 16 16 16 16 16 17 17 17 17 18 18 19 19
48 48 46 45 43 43 42 40 40 40 41 42 41 40 39 38 36 35 33 31 30 29 27 25 24 23 21 20 19 19 18 18 18 18 18 18 18 19 19 20 20 20 21
51 49 49 48 47 45 44 42 41 42 42 42 43 43 41 40 39 38 36 34 32 31 29 27 26 25 24 23 22 21 20 20 19 19 19 20 20 20 21 21 22 22 22
53 53 51 50 49 48 46 45 44 43 43 43 44 44 44 43 42 41 39 36 35 33 32 30 28 27 26 25 24 23 22 22 22 21 21 21 22 22 23 23 23 24 24
55 55 54 53 52 50 49 48 46 45 44 44 45 45 45 44 43 42 41 40 38 36 35 33 31 30 29 28 27 25 25 24 24 23 23 23 24 24 24 25 25 25 26
58 58 57 56 55 53 51 50 49 48 47 46 46 46 46 46 45 45 44 42 41 39 38 36 34 32 31 30 29 28 27 27 26 26 25 25 25 25 26 26 26 27 27
60 60 59 58 58 56 54 53 51 50 49 48 46 46 47 47 47 46 46 45 44 42 40 39 37 35 33 32 31 30 29 28 28 28 27 27 27 27 27 27 28 29 29
60 61 61 61 59 59 58 56 54 53 51 50 49 47 48 48 47 47 47 47 46 45 43 42 41 38 36 35 33 33 32 31 30 30 30 29 29 29 29 29 30 30 30
60 61 62 62 61 60 59 58 57 55 54 52 51 50 49 49 49 48 48 48 47 47 46 44 43 41 39 37 36 35 34 33 33 32 32 32 32 31 31 32 32 32 32
59 61 62 63 63 62 61 60 59 58 56 54 53 52 50 49 49 48 48 48 49 49 49 47 45 43 42 40 39 38 36 35 35 35 35 34 34 34 34 34 34 34 34
58 60 62 63 64 63 63 63 62 61 59 56 54 54 51 50 49 49 49 49 50 50 50 49 47 46 45 43 42 41 40 39 38 37 37 36 36 36 36 36 36 36 37
54 56 59 62 64 64 63 63 63 62 60 58 56 54 52 50 49 50 50 51 50 50 50 50 49 48 47 46 45 43 43 42 40 40 40 40 39 39 38 38 38 38 39
51 53 55 58 60 62 62 62 62 62 62 60 60 57 53 51 50 50 50 50 50 51 51 52 51 50 49 48 47 46 45 44 43 42 42 41 41 41 40 40 41 41 40
46 49 52 54 57 59 60 60 60 61 61 61 60 58 56 53 51 50 50 50 50 50 50 51 51 50 50 50 49 48 47 46 45 44 43 43 43 42 42 41 42 42 42
40 43 47 49 52 56 58 58 59 59 59 60 59 57 57 55 52 51 51 51 50 49 49 49 49 49 50 50 49 49 48 48 47 47 45 45 45 45 44 43 43 43 43
33 37 40 43 47 51 54 55 57 57 57 58 59 58 58 56 54 53 52 51 51 50 50 50 49 49 49 50 50 49 50 50 50 49 47 46 46 45 44 44 44 44 44
23 28 33 37 40 45 48 50 53 55 55 56 57 57 56 55 54 53 51 50 50 49 49 50 50 50 51 51 52 51 51 51 49 49 48 47 46 45 45 45 45 45 45

GEFSSE_500_meanwind_114.txt.gz
Wind_Speed
22 21 21 22 22 22 22 21 20 20 19 18 17 16 14 13 12 10 9 8 7 5 4 3 2 2 2 2 3 3 2 2 2 3 3 3 4 4 5 5 6 7 8
24 23 22 22 22 22 23 23 22 21 21 21 20 18 17 16 14 13 11 10 9 8 6 5 4 4 4 4 4 4 4 4 4 4 4 4 4 5 5 6 6 7 8
26 25 24 24 23 23 23 24 24 23 23 23 22 21 20 18 17 16 14 13 12 10 9 8 7 6 5 5 5 5 5 5 5 5 5 5 5 6 6 7 7 8 8
28 27 26 26 25 24 24 24 24 25 25 24 24 23 22 21 19 18 17 16 14 13 12 10 9 8 7 7 7 7 7 6 6 6 6 6 7 7 7 8 8 9 9
31 30 29 28 27 27 26 26 25 26 26 26 26 25 25 23 22 21 19 18 17 16 15 13 12 11 10 9 9 9 8 8 8 8 8 8 8 8 8 9 9 10 10
34 33 32 31 30 29 29 29 28 27 27 27 27 27 27 26 24 23 22 20 19 18 17 16 15 13 12 12 11 10 10 10 10 10 9 10 10 9 10 10 10 11 11
38 37 35 34 32 31 31 31 30 30 29 29 29 29 29 28 27 26 24 23 21 20 19 18 17 16 15 14 13 13 12 12 12 11 11 11 11 11 11 12 12 12 13
41 40 38 37 35 34 33 32 32 32 32 31 31 30 30 30 29 28 27 26 24 23 21 20 19 18 18 16 15 15 14 14 14 13 13 13 13 13 13 13 14 14 14
43 42 41 40 39 37 36 35 34 34 34 34 34 33 32 31 31 31 30 28 27 26 24 23 22 21 20 19 18 17 17 16 16 15 15 15 15 15 15 15 15 15 16
45 45 44 44 42 41 40 38 37 36 36 36 36 36 35 34 33 32 32 31 30 29 27 26 25 24 23 22 21 20 19 18 18 17 17 17 17 17 16 16 17 17 17
46 47 46 46 46 45 44 42 40 39 38 37 38 38 38 37 36 35 34 33 32 31 30 29 27 26 25 24 23 22 22 21 20 20 19 19 19 19 19 18 19 19 19
47 48 48 49 48 48 47 46 44 42 41 40 39 39 39 39 38 37 36 35 35 33 32 31 30 29 28 27 26 25 24 23 23 22 22 21 21 21 21 21 20 21 21
48 48 49 50 51 50 49 49 47 46 44 42 41 41 41 41 40 40 38 37 36 35 34 34 33 31 30 29 29 28 27 26 25 25 24 23 23 23 23 23 23 22 23
48 49 50 51 51 52 52 51 51 49 47 45 44 44 43 42 42 42 40 39 38 37 36 36 36 34 33 32 31 30 29 29 28 27 26 26 25 25 25 25 25 25 24
48 50 51 52 53 53 54 54 53 52 50 49 48 47 46 45 44 43 43 41 40 40 39 39 38 37 36 35 33 32 32 31 30 29 29 28 28 27 27 26 26 26 26
49 50 51 53 54 54 55 56 55 55 53 52 51 50 49 48 47 45 45 44 43 42 41 41 41 40 39 38 36 35 34 33 32 32 31 31 30 29 29 29 28 28 28
50 51 52 53 55 56 56 57 57 57 56 54 53 53 52 50 48 47 46 45 45 44 44 44 43 43 42 41 39 38 37 36 35 35 34 33 33 32 31 31 30 30 30
51 52 53 54 55 57 58 58 58 58 57 57 56 55 54 52 50 49 48 46 45 46 45 45 45 44 43 43 42 42 41 39 38 36 36 35 35 34 34 33 32 32 33
52 52 53 54 55 56 58 60 60 59 59 59 57 57 56 55 53 52 50 49 48 47 47 47 47 46 45 45 44 44 43 42 40 39 39 38 38 37 36 36 35 35 35
52 53 54 54 55 56 57 59 60 61 61 61 60 59 58 57 55 55 54 52 50 49 48 47 46 46 46 46 46 46 45 45 43 42 41 40 39 39 39 38 38 37 37
50 52 53 54 55 57 58 59 60 60 61 62 62 61 60 59 58 57 57 55 53 51 50 48 47 47 47 47 47 47 46 45 44 42 42 41 41 40 40 40 39 39 40
50 51 52 54 55 57 58 58 59 60 60 61 62 62 63 62 61 60 59 57 55 53 52 50 49 49 47 47 47 47 47 46 45 45 44 43 42 42 41 41 41 41 41
46 47 48 50 53 55 57 59 59 60 61 61 61 62 62 62 62 61 60 58 56 55 54 52 51 50 49 48 48 47 46 45 45 46 45 44 43 42 41 42 43 43 43
39 41 43 45 48 50 53 55 57 59 60 60 60 60 61 61 61 61 61 60 58 56 55 53 52 51 50 48 48 48 47 47 46 45 44 44 44 43 43 44 44 44 44
33 35 37 40 43 45 48 50 52 54 56 58 59 59 59 60 60 60 60 60 60 58 56 54 53 53 51 50 49 48 47 47 46 47 46 46 46 46 46 46 46 45 45
26 29 33 35 38 40 42 44 46 48 51 54 56 57 57 57 59 59 59 59 60 59 57 55 55 54 51 50 50 49 50 50 49 49 48 47 48 48 48 47 46 46 46

GEFSSE_500_meanwind_120.txt.gz
Wind_Speed
18 19 19 19 20 20 20 19 18 17 17 17 16 15 14 13 12 11 10 10 9 8 7 6 6 6 6 6 6 5 5 4 4 3 3 2 1 1 2 3 4 5 6
20 20 21 21 21 20 20 20 20 19 19 18 18 17 16 15 14 14 13 12 11 10 9 9 8 7 7 7 7 7 6 6 5 5 4 3 3 2 2 3 4 4 5
22 22 22 22 22 22 21 20 20 21 21 20 20 19 19 18 17 15 15 15 14 13 12 11 10 9 9 9 8 8 8 7 7 6 6 5 5 4 4 4 4 5 5
25 25 24 24 24 23 23 22 21 21 21 21 21 21 20 20 19 18 17 17 16 15 14 13 12 11 11 11 10 10 9 9 9 8 8 7 7 6 6 6 6 6 6
29 28 27 26 26 25 25 25 24 23 22 22 21 21 21 21 21 20 20 19 18 17 16 16 15 14 13 13 12 12 11 11 10 10 10 9 9 8 8 8 7 8 8
32 31 30 29 28 28 26 26 26 26 25 24 23 22 22 22 22 22 22 21 20 19 18 18 18 17 16 15 15 14 14 13 12 12 12 12 11 11 10 10 10 10 10
35 34 33 32 31 30 29 28 28 27 27 27 26 25 24 24 23 23 23 23 23 22 21 20 20 19 19 18 17 16 16 15 15 14 14 14 13 13 13 12 12 12 12
37 36 36 35 35 34 33 32 31 30 29 29 28 28 27 26 25 25 25 25 25 24 24 23 22 22 21 20 20 19 18 17 17 16 16 16 16 15 15 14 14 14 14
38 38 37 37 37 37 36 35 34 33 32 31 31 30 30 29 28 27 26 26 26 26 26 25 25 24 23 22 22 21 20 20 19 19 18 18 18 17 17 17 16 16 16
39 39 39 39 39 39 38 37 36 35 34 34 33 33 32 32 31 30 29 28 28 28 28 27 27 26 25 24 24 23 23 22 22 21 21 20 20 20 19 19 19 18 18
40 40 40 40 40 41 40 40 39 38 37 36 36 35 35 35 35 34 33 32 30 30 29 29 29 28 27 27 26 25 25 25 24 23 23 22 22 22 22 21 21 21 20
41 41 41 41 42 42 42 42 42 42 41 40 39 38 37 37 37 36 36 35 34 32 31 31 30 30 29 29 28 28 27 27 26 25 25 25 24 24 24 24 23 23 23
41 41 42 42 42 43 44 44 44 44 43 42 42 41 40 39 39 39 38 37 36 35 34 33 32 31 31 31 30 30 30 29 28 27 27 26 26 26 26 26 25 25 25
41 42 43 43 43 44 45 45 46 46 46 45 44 43 42 42 41 40 40 39 39 38 37 36 35 34 33 33 32 31 31 31 30 30 29 29 28 28 28 28 27 27 27
41 43 43 44 45 45 45 46 47 47 47 47 46 45 45 44 43 43 41 41 41 40 39 38 38 37 35 35 34 34 33 33 32 32 31 31 30 30 30 30 29 29 29
41 43 44 45 45 46 46 46 47 47 48 48 47 47 46 46 45 45 44 43 43 42 41 40 40 39 38 37 36 36 36 36 35 34 33 32 32 32 32 31 31 31 31
43 43 44 46 46 47 47 47 47 48 49 49 48 48 48 47 48 47 46 45 44 44 43 43 42 41 40 40 39 38 38 38 37 36 35 35 34 34 34 33 33 33 33
44 45 46 46 47 48 48 48 48 49 49 50 49 50 50 49 49 49 48 47 46 46 45 45 44 43 42 42 41 40 40 40 40 39 38 37 37 36 36 36 35 35 35
46 46 47 48 49 49 50 50 50 50 50 50 51 51 51 51 51 51 50 49 49 49 48 47 46 46 45 44 43 42 41 41 41 40 40 40 39 38 38 38 37 36 36
47 48 48 48 49 50 50 51 51 51 52 52 52 52 53 52 52 53 53 53 52 52 51 49 49 48 47 46 45 44 44 43 42 41 41 41 40 39 38 38 38 37 37
47 48 48 49 50 50 51 51 51 51 51 51 51 52 54 54 53 53 53 54 54 54 54 53 52 50 48 48 47 46 45 44 43 43 42 41 41 41 40 40 39 39 39
46 47 48 49 49 50 50 51 51 51 51 51 52 51 53 54 54 54 54 54 54 55 55 55 55 52 51 49 49 48 48 46 45 45 43 42 41 41 42 41 41 40 40
43 45 46 47 49 50 51 51 51 52 52 52 53 53 53 54 56 56 57 57 56 55 56 56 55 55 54 53 52 51 50 50 48 47 45 44 43 43 43 43 42 41 41
39 41 42 43 45 46 47 49 50 51 51 52 53 54 54 54 55 56 57 58 58 58 57 56 57 57 55 54 54 52 51 50 51 49 48 47 45 44 43 42 42 41 40
35 37 39 40 41 43 44 45 47 48 49 50 50 51 52 53 53 54 56 58 59 58 57 56 56 57 56 55 55 53 53 52 51 50 48 47 46 45 45 43 42 42 42
31 33 34 36 37 39 40 42 43 45 46 47 48 49 50 50 51 52 53 55 57 58 57 56 56 56 56 56 56 55 54 52 51 50 49 48 47 46 46 46 45 44 44

GEFSSE_500_meanwind_126.txt.gz
Wind_Speed
14 14 14 14 14 14 14 14 14 13 13 13 13 12 12 12 11 10 10 10 9 9 8 8 8 8 7 7 7 7 7 7 7 6 6 6 5 4 4 3 3 2 3
15 15 15 15 15 15 15 16 16 15 15 15 15 14 14 14 13 12 12 11 11 11 10 10 10 9 9 9 9 9 9 9 9 8 8 8 7 7 6 5 5 4 4
17 17 17 17 17 17 17 17 17 17 16 17 17 17 16 16 16 15 14 13 13 13 12 12 12 11 11 11 11 11 10 10 10 10 10 9 9 9 8 8 7 6 6
19 19 19 19 19 19 19 19 19 18 18 18 18 18 18 18 17 17 17 16 15 15 14 14 14 13 13 12 12 12 12 12 12 12 11 11 11 11 10 10 9 9 8
22 21 22 21 21 21 20 20 20 20 20 20 19 19 19 19 19 18 18 18 18 17 17 16 16 15 15 14 14 14 14 14 14 13 13 13 13 13 12 12 11 11 11
25 24 24 24 23 23 23 22 22 22 22 22 22 21 21 20 20 20 19 19 19 19 19 19 18 18 17 17 16 16 16 15 15 15 15 15 15 15 14 14 14 13 13
27 27 27 27 26 26 25 25 24 24 24 24 24 24 23 23 22 21 21 21 20 20 20 20 20 20 20 19 18 18 18 18 17 17 17 16 16 16 16 16 16 16 15
30 30 29 29 29 28 28 27 27 27 26 26 26 26 26 25 25 24 23 23 23 22 21 22 22 22 21 21 21 20 20 20 20 19 19 19 18 18 18 18 18 18 18
31 31 31 32 31 31 31 30 30 29 29 28 28 28 28 27 27 27 26 25 25 24 24 24 23 23 23 23 22 22 22 22 21 21 21 21 20 20 20 20 19 19 19
33 33 33 33 34 34 33 33 33 32 32 31 31 30 30 30 30 29 29 28 28 27 26 26 25 25 25 25 24 24 23 23 23 22 22 22 22 22 22 22 21 21 21
34 34 34 34 35 35 35 35 35 35 35 34 34 33 33 32 32 32 32 31 31 30 29 28 28 27 27 27 26 26 25 25 24 24 24 24 24 24 23 23 23 23 23
35 35 35 35 36 36 36 37 37 37 37 37 37 36 36 35 35 34 34 34 33 33 32 32 31 30 30 29 28 28 27 27 26 26 26 26 26 25 25 25 25 25 25
36 36 36 36 37 37 37 37 38 38 39 39 39 39 39 38 37 37 37 36 35 35 35 34 34 33 32 31 30 30 29 29 28 28 28 28 28 28 27 27 27 26 26
36 37 37 37 37 37 38 38 39 39 40 40 41 41 41 40 40 39 39 39 38 37 37 37 36 36 35 35 34 33 32 31 30 30 29 29 29 29 29 29 28 28 28
36 37 37 37 37 38 38 39 39 40 40 40 41 41 41 41 41 40 40 40 40 40 39 39 39 38 38 37 36 36 35 34 33 32 32 31 31 31 31 31 30 30 29
37 37 38 38 38 38 39 39 39 39 40 40 41 41 41 41 41 41 41 41 41 41 41 41 41 41 40 39 39 38 37 37 36 35 35 34 33 33 33 33 32 32 31
38 38 38 39 39 39 39 40 39 40 40 41 41 42 42 42 42 42 43 42 42 42 43 43 43 43 42 41 40 40 40 39 39 39 38 37 36 35 35 34 34 35 34
39 39 39 39 40 40 41 41 42 42 42 43 43 44 45 45 45 45 44 44 44 43 44 45 45 45 44 43 43 42 42 41 41 41 40 39 38 38 37 37 37 36 36
40 40 40 40 41 41 42 43 44 44 44 45 45 46 46 46 46 46 47 46 46 46 45 46 47 46 46 45 46 45 44 43 42 41 40 40 40 39 39 39 39 38 38
41 42 42 43 43 44 45 45 46 46 47 47 47 48 49 48 49 49 49 48 48 48 48 48 47 48 48 48 48 48 47 46 45 43 42 41 41 41 41 41 40 40 40
42 43 44 44 44 45 45 46 47 47 48 48 48 49 50 50 51 51 51 51 51 51 50 50 50 50 49 49 50 50 51 50 48 47 45 44 43 43 43 42 42 41 41
42 43 44 45 45 46 47 48 48 49 49 49 49 50 51 51 52 52 51 52 52 52 53 52 53 52 52 51 51 51 52 52 51 49 48 47 46 46 44 43 44 44 42
42 43 44 45 45 46 47 48 48 49 49 50 50 51 51 51 52 52 53 53 54 54 54 54 53 53 53 53 54 54 55 52 52 53 52 49 48 47 47 46 46 45 45
39 40 41 42 43 44 44 45 46 47 48 49 50 51 51 52 52 52 53 54 54 55 56 55 55 55 55 55 56 55 55 54 55 54 54 53 51 50 49 49 48 47 46
36 36 37 38 40 40 41 43 44 45 46 47 48 49 50 51 52 52 53 53 54 55 56 56 56 56 55 55 55 55 56 56 56 57 56 56 56 54 51 49 49 49 48
32 33 35 36 37 39 40 41 42 42 43 44 45 46 47 49 50 51 52 52 53 54 55 55 56 56 56 55 55 55 55 56 56 56 56 56 55 55 54 52 51 50 50

GEFSSE_500_meanwind_132.txt.gz
Wind_Speed
16 15 15 15 14 13 12 11 11 10 9 9 9 8 8 8 8 7 7 7 7 7 6 6 7 7 6 7 7 7 7 7 7 7 7 7 7 7 7 6 6 6 6
16 15 15 15 15 14 13 12 12 11 11 10 10 10 10 10 9 9 9 9 9 9 8 8 8 8 8 8 8 8 8 8 8 8 9 9 9 8 8 8 8 8 7
17 16 16 16 16 16 15 14 14 13 12 12 12 12 12 12 12 12 11 11 11 11 11 10 10 10 10 10 10 10 10 10 10 10 10 10 10 10 10 10 10 10 9
18 18 17 17 17 17 17 16 16 15 14 14 14 14 14 14 14 14 14 13 13 13 13 13 12 12 12 12 12 12 11 11 12 12 12 12 12 12 12 12 12 11 11
20 19 19 18 18 18 18 18 17 17 17 16 15 15 15 15 15 15 15 15 15 15 15 15 15 15 15 15 14 14 13 13 13 14 13 13 13 13 13 14 13 13 13
22 21 21 20 20 19 19 19 19 19 18 18 17 17 16 16 16 16 16 17 17 17 17 17 17 17 17 17 17 17 16 16 15 15 15 15 15 15 15 15 15 15 15
24 23 23 22 22 22 21 20 20 20 20 20 20 19 19 18 18 18 18 18 18 18 18 18 18 18 18 18 18 18 18 18 18 18 17 17 17 17 17 17 16 16 16
26 25 25 25 24 24 23 22 22 22 22 22 22 22 22 22 21 21 21 21 20 20 20 21 20 20 20 20 19 19 20 20 20 20 20 19 19 19 19 18 18 18 18
29 28 27 27 26 26 26 25 25 25 24 24 24 24 24 24 24 24 24 24 23 23 23 23 23 23 23 22 22 22 22 21 21 22 22 21 21 20 20 20 20 20 20
31 30 30 29 29 29 28 28 28 28 27 27 27 26 26 26 26 27 27 26 26 26 26 26 26 26 26 25 25 24 24 24 24 23 23 23 23 22 22 22 22 22 22
32 32 31 31 31 31 31 31 30 30 30 29 29 29 29 29 28 28 28 28 29 29 29 29 29 29 28 28 28 27 27 27 27 26 25 25 25 25 24 24 24 24 24
33 33 32 32 32 32 32 32 32 32 32 32 32 32 31 31 31 30 30 30 30 30 31 31 31 31 31 31 31 30 30 29 29 28 28 27 27 27 27 27 27 26 26
34 34 33 33 33 33 33 33 34 34 34 34 34 34 34 33 33 33 32 32 32 33 33 33 33 33 33 33 33 33 32 32 31 31 30 29 29 29 29 28 28 28 28
35 35 34 34 34 33 34 34 34 34 35 35 35 35 35 35 35 35 34 34 35 35 35 35 35 35 35 35 35 35 35 35 34 34 33 33 32 32 31 31 31 30 30
35 35 35 35 35 35 35 35 34 34 35 35 36 36 36 37 36 37 37 37 37 37 37 36 37 36 36 37 37 36 36 36 36 36 36 36 36 35 34 34 33 33 32
36 36 36 35 35 35 35 35 35 35 35 36 36 37 37 38 38 38 39 39 39 39 38 38 38 38 37 38 38 38 38 38 38 37 37 37 37 37 36 35 35 35 34
37 37 37 36 36 36 35 35 35 35 35 36 36 37 37 38 38 39 39 40 40 41 41 41 41 41 40 40 40 40 40 40 40 40 39 39 39 38 38 37 37 37 36
38 38 38 38 37 36 36 36 36 37 37 37 38 38 39 39 39 40 40 41 41 42 43 43 43 43 43 43 43 43 43 42 42 43 42 42 42 41 40 40 40 39 39
38 39 39 39 38 38 38 38 39 39 39 40 40 41 41 42 42 42 42 43 43 44 44 45 45 46 46 45 45 45 45 45 45 45 45 44 44 43 43 42 42 41 40
39 39 39 39 40 40 40 40 41 41 42 42 42 43 44 45 45 46 46 46 47 47 47 48 48 49 49 49 49 48 48 47 47 46 47 48 47 46 45 44 44 43 42
40 40 40 41 41 41 41 42 42 42 43 44 45 45 46 47 48 48 48 49 50 49 49 49 50 50 51 51 52 51 51 51 50 48 48 49 49 49 49 48 46 45 45
40 41 41 41 41 42 42 42 43 43 44 45 46 47 47 48 48 48 49 49 48 48 49 49 49 49 50 52 53 54 54 53 52 52 51 51 51 51 51 51 51 51 49
40 40 41 41 41 42 42 42 43 43 44 45 46 47 47 47 47 47 47 47 47 47 48 49 49 50 50 51 53 55 56 56 54 53 53 53 52 52 52 53 53 53 53
38 38 39 40 40 41 42 42 43 44 44 45 46 46 46 47 47 47 48 48 48 48 48 48 49 50 50 51 52 53 55 55 55 54 54 54 54 54 54 54 54 53 54
36 38 38 39 39 40 41 42 43 43 44 45 46 46 46 47 47 46 46 47 47 47 48 48 49 50 50 51 52 52 52 53 54 55 55 55 55 55 54 54 54 53 54
34 35 36 37 37 38 39 40 41 42 43 43 44 44 45 45 46 46 46 46 46 46 46 46 48 49 49 50 51 52 52 52 54 55 56 55 54 54 54 54 55 55 54

GEFSSE_500_meanwind_138.txt.gz
Wind_Speed
18 17 16 15 14 14 13 13 12 12 11 11 10 9 8 8 7 7 6 6 6 6 6 7 7 7 7 7 7 6 6 6 6 7 7 7 7 7 7 6 6 6 6
19 17 17 16 15 15 14 13 13 12 12 11 11 11 10 10 9 9 8 8 8 8 8 8 9 9 9 9 9 9 8 8 8 8 8 8 9 9 9 9 8 8 8
19 18 17 17 16 15 15 14 14 13 12 12 12 12 11 11 11 10 10 10 10 10 10 10 11 11 11 11 11 11 11 11 11 10 10 10 10 10 11 11 11 10 10
19 18 18 17 17 16 16 15 15 14 13 13 13 13 13 13 12 12 12 11 12 12 12 12 12 12 13 13 13 13 13 13 13 13 13 12 12 12 12 12 13 12 12
20 19 19 18 18 17 17 17 16 16 15 15 14 14 14 14 14 14 14 13 14 14 14 14 14 14 14 15 15 15 15 15 15 15 15 15 15 14 14 14 15 15 15
21 21 20 19 19 18 18 18 18 18 17 17 16 16 16 16 16 15 15 15 15 15 15 16 16 16 16 16 16 16 17 17 17 17 18 18 17 17 17 17 16 17 17
22 22 22 21 20 20 19 19 19 19 19 19 18 17 17 17 17 17 17 17 17 17 17 17 17 17 17 17 17 18 18 18 18 19 19 19 19 19 19 19 19 19 19
23 23 23 22 22 21 21 20 20 21 20 20 20 20 19 20 20 20 20 19 19 19 19 19 20 20 20 20 20 20 20 20 20 20 21 21 21 21 21 21 21 21 21
25 25 24 24 23 23 22 22 22 22 22 22 22 22 22 22 22 22 22 22 22 22 22 22 22 22 22 22 22 23 23 23 23 23 23 23 23 23 23 23 23 23 23
27 26 26 25 25 25 24 23 23 24 24 24 24 25 25 25 25 25 25 24 24 25 25 25 25 25 25 25 25 25 25 25 25 25 25 25 25 25 25 25 25 25 25
29 28 27 27 26 26 25 25 25 25 25 26 26 26 27 27 27 27 27 27 27 27 27 27 27 27 27 27 27 27 27 27 27 28 27 27 27 27 27 27 27 27 27
30 29 29 28 28 28 27 27 27 27 27 27 27 28 28 29 29 29 29 29 29 29 29 29 29 29 29 30 30 30 30 30 30 30 30 30 30 30 30 29 29 29 29
31 31 30 30 29 30 29 29 29 29 29 29 29 30 30 31 31 31 31 31 31 31 31 32 31 31 31 31 32 32 32 32 32 32 32 32 32 32 32 32 32 31 31
32 31 31 31 31 31 31 31 31 31 32 32 32 32 32 32 32 32 31 32 32 33 33 33 34 34 34 34 34 34 34 34 34 34 34 34 34 34 34 34 34 34 33
32 32 32 32 32 32 32 33 33 33 33 33 33 33 32 32 32 32 33 33 33 34 34 34 35 35 35 35 35 35 36 36 36 35 35 35 35 35 35 35 36 36 36
33 33 33 33 33 33 33 33 33 33 33 34 33 33 33 33 33 33 33 34 34 35 35 35 35 35 36 36 37 37 37 38 38 37 37 37 37 37 37 37 37 37 37
35 35 34 34 34 34 33 34 34 33 34 34 34 35 35 35 35 35 35 36 36 37 37 38 38 39 39 40 40 40 40 39 40 40 40 39 39 39 39 40 39 39 38
36 36 36 35 35 35 35 35 34 35 35 35 35 36 36 36 36 36 37 37 38 38 39 40 41 42 42 43 43 43 43 43 43 43 43 43 42 42 42 42 42 42 42
37 37 37 36 36 36 36 36 36 36 36 37 37 37 37 37 38 38 38 38 39 40 40 42 42 43 44 44 44 44 44 45 45 44 45 45 45 45 45 44 44 44 44
37 37 37 37 37 37 37 37 37 37 37 38 38 38 38 38 39 39 40 41 41 42 42 43 43 44 44 44 45 45 46 46 47 47 47 48 48 48 48 48 48 48 47
37 37 37 37 37 37 36 36 36 36 37 38 39 39 39 39 40 41 41 42 43 43 44 44 45 45 45 45 45 46 46 46 47 48 49 49 50 51 51 51 51 51 51
35 36 36 36 35 35 35 36 36 36 37 38 39 40 40 40 41 41 42 43 44 44 44 44 44 45 45 45 45 46 46 46 46 47 48 50 51 52 53 53 53 53 52
35 35 35 36 36 36 37 37 37 38 38 39 39 40 41 41 41 42 43 43 43 44 45 45 45 45 44 45 45 45 45 45 46 46 48 49 51 53 53 54 54 53 53
35 35 36 36 37 37 38 39 39 39 39 40 40 41 41 42 42 43 42 42 43 43 43 44 44 43 43 44 44 45 45 46 46 46 47 49 50 51 52 53 53 53 53
34 35 36 36 37 38 38 39 39 39 40 40 40 40 41 42 42 42 42 42 42 42 42 42 42 43 43 43 44 45 45 46 47 47 47 48 49 50 52 52 54 55 54
33 34 34 35 35 35 36 36 37 37 38 38 39 39 40 40 40 40 40 41 41 41 41 41 42 42 43 44 44 45 45 46 47 47 47 47 48 48 50 51 52 53 55

GEFSSE_500_meanwind_144.txt.gz
Wind_Speed
18 17 16 15 14 14 13 13 12 11 11 10 9 9 8 8 8 8 8 8 8 8 8 8 8 8 8 8 8 7 7 7 7 7 8 8 8 8 8 8 7 7 7
20 18 17 16 16 15 15 14 14 13 13 12 11 11 10 10 10 10 10 10 10 9 9 9 9 9 9 10 10 10 9 10 10 9 9 9 10 10 10 10 10 10 10
21 20 18 18 17 16 16 15 15 14 14 13 13 13 12 12 12 11 11 11 11 11 11 11 11 11 11 11 12 12 12 12 12 12 12 12 12 12 12 12 12 12 12
22 21 20 19 18 17 16 16 15 14 14 14 14 14 14 14 14 14 14 13 13 13 12 13 13 13 13 13 13 13 13 14 14 14 14 14 14 14 14 14 14 14 14
23 22 21 19 18 17 17 16 16 15 15 14 14 14 14 14 15 15 15 15 15 15 15 15 15 15 15 15 15 15 15 15 15 15 15 15 16 16 16 16 16 16 16
24 23 22 20 19 19 18 17 17 17 16 16 16 15 15 15 15 15 16 16 16 16 16 16 17 17 17 16 16 16 17 17 17 17 17 17 17 17 18 18 18 18 18
24 23 22 21 20 20 19 19 18 18 18 18 17 17 17 16 16 17 17 17 17 17 17 18 18 18 18 18 18 18 18 18 18 19 19 19 19 19 20 20 20 20 20
25 24 23 22 21 21 20 20 20 20 20 20 19 19 19 19 18 18 19 19 19 19 19 20 20 20 20 20 20 21 21 21 21 21 21 21 21 22 22 22 22 22 22
26 25 24 23 23 22 22 22 21 21 21 21 21 21 21 20 20 21 21 21 21 22 22 22 22 22 22 22 22 23 23 23 23 23 23 23 23 23 23 23 23 23 23
26 25 25 24 24 24 23 23 23 23 23 23 23 23 22 22 23 23 23 23 24 24 24 25 25 25 25 25 25 25 25 25 25 25 25 25 25 25 25 25 25 26 26
27 26 26 26 25 25 24 24 24 24 24 24 24 24 24 24 24 25 25 25 26 26 26 26 27 27 27 27 27 27 27 27 27 27 27 27 27 27 27 27 27 27 28
28 27 27 26 26 25 25 25 25 25 25 24 25 25 26 26 26 27 27 27 27 27 27 27 28 28 28 28 28 28 28 29 29 29 29 29 29 29 29 29 29 29 29
29 28 28 27 27 26 26 27 26 26 26 26 27 27 27 28 28 28 28 28 28 28 28 28 28 29 29 29 29 29 29 29 29 29 29 30 30 30 31 31 31 30 30
30 29 29 28 28 28 28 28 28 28 28 28 28 28 29 29 29 29 29 30 30 30 30 31 31 31 30 30 30 30 30 30 30 31 31 31 31 31 32 32 32 32 32
31 30 30 30 29 29 29 29 29 29 29 29 29 29 29 30 30 30 31 31 32 32 32 32 33 33 32 32 32 32 32 32 32 33 33 33 34 34 35 35 35 35 35
31 31 31 31 31 30 30 29 30 30 30 29 29 30 30 30 31 31 32 32 32 33 34 34 34 34 34 34 34 34 34 35 35 35 35 36 36 37 37 37 37 37 37
32 32 32 32 32 32 32 32 31 30 31 31 31 30 31 31 32 32 33 34 34 34 35 35 35 35 35 35 35 35 35 36 37 37 37 38 38 38 39 40 40 40 40
32 33 33 33 33 34 34 33 32 31 32 31 31 31 31 31 32 32 33 33 34 34 35 35 36 36 36 36 37 37 37 38 38 38 39 39 39 39 40 41 42 43 43
33 33 34 34 35 34 34 34 33 32 32 32 32 33 33 32 32 32 33 34 34 34 35 36 36 37 37 38 38 38 38 39 39 40 40 40 40 41 41 42 42 43 43
32 33 34 34 34 34 33 34 34 34 34 33 34 34 34 34 34 34 35 35 35 35 36 36 37 38 38 38 39 39 39 40 40 41 41 42 42 42 42 43 43 43 44
33 33 33 34 35 35 35 35 36 36 36 35 35 35 35 35 35 36 36 36 36 36 36 37 37 38 39 40 40 40 40 41 41 42 42 42 42 43 43 44 44 45 46
35 35 35 35 35 36 37 37 37 38 37 37 36 36 36 36 36 36 36 36 36 36 37 38 38 38 39 39 40 41 40 40 41 41 41 42 42 43 43 43 44 45 46
35 35 35 35 36 37 38 38 38 38 38 38 37 36 36 36 36 37 37 36 36 37 37 37 37 37 38 39 40 40 40 39 40 40 40 41 41 41 42 43 44 44 45
35 35 35 35 35 36 36 36 37 37 37 37 37 37 37 36 36 36 36 36 37 37 38 38 38 38 39 39 40 40 40 40 40 39 39 40 41 42 43 44 45 45 46
34 35 35 35 36 36 36 36 36 36 36 36 37 37 37 38 37 37 37 37 37 37 38 38 39 39 40 40 40 40 40 41 41 41 41 42 42 43 43 44 45 46 47
34 34 34 35 35 35 35 35 35 35 35 36 36 36 37 37 37 37 37 37 37 37 38 39 40 40 40 40 40 40 40 41 41 42 42 42 42 43 43 44 44 45 47

GEFSSE_500_meanwind_150.txt.gz
Wind_Speed
15 15 14 13 12 12 11 10 10 9 9 8 8 8 8 8 7 7 7 7 7 8 8 8 8 9 9 9 9 9 9 9 9 10 10 10 10 10 10 10 10 10 10
17 16 16 15 14 13 13 12 12 11 11 10 10 10 10 9 9 9 9 9 9 9 9 9 9 9 9 9 10 10 10 11 11 11 11 12 12 12 12 12 12 12 12
19 18 17 17 16 15 14 14 14 13 12 12 12 12 12 12 11 11 11 11 10 10 10 11 11 10 11 11 11 11 11 12 12 13 13 13 13 13 13 13 14 14 14
22 20 19 18 17 17 16 15 15 14 14 14 13 13 14 14 14 14 13 13 13 13 13 13 13 13 13 13 13 13 13 13 14 14 14 14 15 15 15 15 15 15 15
23 22 21 20 18 17 17 16 15 15 15 15 14 14 14 14 15 15 14 14 14 15 15 15 15 15 15 15 15 15 15 16 16 16 16 16 16 16 17 17 17 17 17
24 24 23 22 20 19 17 17 16 16 15 15 15 15 15 15 15 15 15 15 15 15 16 16 17 17 17 17 18 18 18 18 18 18 18 18 18 18 18 18 19 19 19
25 24 24 23 21 20 19 18 18 17 16 16 16 16 16 16 16 16 17 17 17 17 17 17 18 18 18 18 19 19 19 19 20 20 20 20 20 20 20 21 21 21 21
26 25 25 24 23 21 20 19 19 19 18 18 18 17 18 18 18 18 18 19 19 19 19 19 19 20 20 20 20 20 21 21 22 22 22 22 22 22 22 22 23 23 23
27 27 26 25 24 23 22 21 21 20 20 20 20 20 20 19 19 19 20 20 20 21 21 21 21 21 21 22 22 22 22 23 23 23 24 24 24 24 24 24 24 24 24
28 27 26 25 25 24 23 23 22 22 22 22 21 21 21 21 21 21 22 22 22 22 22 22 22 23 23 23 24 24 24 24 25 25 25 25 26 26 26 26 26 25 26
28 28 27 26 25 25 24 24 23 23 23 23 23 22 22 22 23 23 23 23 23 23 23 23 24 24 25 25 25 25 25 25 25 26 26 27 27 27 27 27 27 27 27
29 28 28 27 26 25 25 25 25 24 24 24 24 24 24 24 24 24 25 25 25 25 25 26 26 26 26 26 26 26 26 26 26 26 27 27 28 28 28 28 28 29 28
29 29 28 27 26 26 26 26 26 25 25 25 25 25 25 25 25 25 26 26 26 27 27 28 28 28 28 28 28 27 27 27 27 27 27 28 28 28 28 29 29 30 30
29 29 28 27 27 26 26 27 27 26 26 26 26 26 26 26 26 26 26 27 27 27 28 28 29 29 29 29 29 29 29 29 29 29 29 29 29 30 30 30 31 31 32
29 29 29 28 28 28 28 28 28 28 28 28 27 26 26 26 27 27 27 27 27 28 29 29 29 30 30 31 31 31 31 31 31 31 31 31 31 31 32 32 33 33 34
29 29 29 29 29 29 29 30 29 29 29 28 27 27 27 27 28 28 29 29 29 30 30 30 30 31 32 32 32 32 32 32 32 32 33 33 33 34 34 35 35 36 36
29 30 30 30 30 30 30 30 29 29 29 28 28 28 28 28 29 29 29 30 31 31 31 32 32 32 33 33 33 33 33 33 33 34 34 35 35 35 36 36 37 38 38
29 30 30 31 31 31 30 30 29 29 28 28 29 29 29 29 30 30 30 31 32 32 32 32 33 33 33 33 33 33 33 34 34 35 35 35 36 36 37 37 38 38 39
29 30 30 30 30 31 30 30 30 30 30 30 30 30 31 31 30 30 31 32 32 33 33 33 33 33 32 33 33 34 34 34 35 36 36 37 37 38 38 38 38 39 40
29 30 31 31 31 32 32 32 32 32 32 32 32 31 32 32 31 31 32 32 32 32 33 33 33 33 33 33 33 34 34 35 36 36 37 37 38 39 39 39 40 40 41
30 31 31 32 32 32 33 33 33 34 34 34 34 33 33 33 33 33 33 34 33 33 33 33 33 33 34 34 34 35 35 36 36 36 37 37 38 38 39 40 40 40 41
30 31 31 32 32 33 33 34 35 35 35 35 35 35 35 35 35 35 34 34 34 34 34 34 34 35 34 34 35 35 36 36 37 37 37 38 38 38 39 39 39 39 40
31 32 32 33 33 34 34 35 35 36 37 37 37 36 36 36 36 36 35 35 35 35 35 35 35 36 36 36 36 36 37 37 38 38 38 38 39 39 39 40 40 40 41
32 33 34 34 34 34 35 35 36 36 36 37 37 37 37 37 36 36 36 36 36 36 36 36 36 36 37 37 38 38 38 38 38 38 39 39 40 40 41 41 41 41 42
32 33 34 35 35 35 35 36 37 38 38 38 37 38 38 38 36 35 36 36 37 37 37 37 38 38 38 39 39 39 38 38 38 38 38 39 40 40 41 42 42 43 43
33 34 34 35 36 36 36 36 37 37 38 38 38 38 38 38 38 37 35 35 36 37 38 38 38 39 39 38 38 38 38 38 39 39 40 40 40 41 42 43 43 44 44

GEFSSE_500_meanwind_156.txt.gz
Wind_Speed
16 16 15 13 12 11 10 9 8 7 6 5 5 4 4 4 4 4 5 5 5 6 6 6 7 7 8 8 8 8 9 9 9 10 10 10 10 10 11 11 11 11 11
18 17 16 15 14 13 12 11 10 9 8 7 7 6 6 6 6 6 6 7 7 7 8 8 8 9 9 9 10 10 10 10 10 11 11 11 12 12 12 12 13 13 13
20 19 18 17 16 15 14 13 12 11 10 9 9 8 8 8 8 8 8 8 8 9 9 10 10 11 11 11 12 12 12 12 12 13 13 13 13 13 13 14 14 15 15
22 21 19 18 17 16 15 15 14 13 12 11 11 10 9 9 9 9 10 10 10 10 11 11 12 12 13 13 14 14 14 14 14 15 15 15 15 15 15 15 16 16 16
23 22 21 20 18 17 16 16 15 14 14 13 12 11 11 11 11 11 11 12 12 12 12 13 13 14 14 14 15 15 16 16 16 16 17 17 17 17 17 17 18 18 18
24 23 22 21 20 19 18 16 16 15 15 14 14 13 13 12 12 12 13 13 13 14 14 14 15 15 16 16 16 17 17 17 17 17 17 18 18 19 19 19 19 19 20
26 25 23 22 21 20 19 18 17 16 16 15 15 14 14 13 13 13 14 14 15 15 16 16 16 17 17 17 18 18 18 19 19 19 19 20 20 20 20 20 21 21 21
27 27 25 24 23 21 20 19 18 17 16 16 16 15 15 15 15 15 15 15 16 16 17 17 18 18 18 19 19 19 19 20 20 20 21 21 21 21 21 22 22 23 23
28 27 27 25 24 23 21 20 19 18 18 17 17 17 16 16 16 16 16 16 17 17 18 19 19 19 19 20 21 21 21 21 21 21 22 22 22 23 23 23 23 24 24
28 28 27 27 25 24 23 22 21 19 19 19 19 18 18 17 17 17 17 18 18 18 19 19 20 20 21 21 22 22 23 23 23 23 23 24 24 24 24 25 25 25 25
28 27 27 27 26 25 25 24 23 21 21 21 21 20 20 19 19 19 19 20 20 20 21 21 21 22 22 23 23 24 24 24 25 25 25 25 25 25 25 25 25 26 26
29 27 27 27 27 26 25 25 24 24 23 23 22 22 22 21 21 21 22 22 22 22 22 22 22 23 23 24 25 25 25 26 26 26 26 26 26 26 26 26 27 27 27
30 28 27 27 28 27 26 26 25 25 25 24 24 24 23 23 23 24 24 24 24 24 24 23 23 24 24 25 25 25 26 26 27 27 27 27 28 28 28 28 29 29 29
30 29 29 28 29 28 27 27 26 26 26 25 25 25 25 25 25 25 25 25 25 25 24 24 24 24 25 25 25 25 26 27 27 28 28 29 29 30 30 31 31 31 31
30 29 29 29 29 28 28 27 26 27 27 27 26 26 26 26 26 26 26 26 26 26 26 26 26 26 26 25 26 26 27 27 28 28 30 30 31 32 32 32 32 33 33
30 29 29 28 29 29 29 27 27 27 27 27 27 26 26 27 27 27 27 28 28 28 27 27 27 27 27 27 27 27 27 27 28 29 30 31 32 32 33 33 34 34 35
30 30 29 28 28 28 28 28 28 28 27 26 27 27 27 27 27 28 28 29 29 29 29 29 28 29 29 29 29 29 29 29 29 30 30 31 32 32 33 34 34 35 35
30 30 29 29 29 29 29 29 29 29 28 28 28 28 28 28 28 29 30 30 30 30 30 30 30 30 30 30 30 30 31 31 31 31 31 31 31 32 32 33 34 35 35
30 30 31 30 30 29 30 30 30 30 29 28 29 28 28 29 30 31 31 31 32 32 32 32 32 32 32 32 32 32 33 33 33 33 32 32 32 33 33 33 33 34 35
30 30 30 30 30 30 30 31 31 31 31 30 30 30 30 30 32 32 32 33 33 33 33 33 34 34 34 34 34 34 35 35 34 34 34 33 33 33 34 34 34 35 35
31 31 31 31 31 31 31 31 32 33 33 33 32 32 32 32 32 33 34 34 34 34 35 35 35 35 35 35 35 35 35 35 35 35 35 35 35 35 35 36 36 36 36
31 32 32 32 32 32 32 32 33 34 35 35 35 35 35 34 33 34 35 37 37 36 36 36 36 36 36 36 36 35 35 36 36 37 37 37 37 37 37 37 37 37 38
31 32 33 32 32 33 33 33 34 35 36 37 37 37 37 37 36 36 36 36 37 37 37 37 37 37 37 37 37 37 36 36 37 37 38 38 39 39 39 39 39 39 39
30 31 32 32 33 33 34 34 35 37 37 38 38 39 40 39 39 38 38 38 38 38 38 38 38 38 37 37 38 38 38 38 38 38 39 40 40 40 41 41 41 41 42
31 32 32 33 33 33 33 35 37 38 38 39 40 40 41 41 41 40 40 39 39 38 38 38 38 38 38 38 39 39 39 40 40 40 40 40 41 41 42 43 43 44 44
31 32 32 33 34 35 35 36 37 38 39 40 40 40 40 40 40 41 41 41 40 39 39 38 38 39 39 39 40 40 40 41 41 41 41 41 41 42 43 43 44 44 44

GEFSSE_500_meanwind_162.txt.gz
Wind_Speed
17 16 15 14 13 12 11 11 11 9 9 8 8 7 6 6 5 5 5 4 4 3 3 3 3 3 4 4 5 5 6 6 6 7 7 7 8 9 9 10 10 10 11
19 17 16 16 14 13 13 12 12 11 9 9 8 8 7 6 6 6 5 5 5 5 5 5 5 5 6 6 7 7 8 8 8 9 9 9 10 10 11 11 12 12 12
21 19 18 17 16 14 14 14 14 13 11 10 9 8 8 8 7 7 7 7 6 6 6 7 7 7 8 8 9 9 9 10 11 11 11 12 12 12 12 13 13 13 13
23 21 20 18 17 16 15 15 15 14 13 11 10 10 9 9 8 8 8 8 8 8 8 8 9 9 9 10 10 10 11 11 12 12 12 13 13 13 14 14 14 15 15
24 23 21 20 19 18 17 16 16 15 14 13 12 11 11 10 10 10 9 9 9 9 9 10 10 10 11 11 12 12 13 13 13 14 14 14 15 15 15 15 16 16 17
26 24 23 21 20 19 18 17 17 16 15 15 14 13 12 12 12 11 11 11 11 10 10 11 11 12 12 13 13 14 14 14 15 15 15 16 16 16 17 17 17 18 18
27 26 24 23 22 21 19 19 18 17 16 16 15 14 14 13 13 13 13 12 12 12 12 12 13 13 14 14 15 15 16 16 17 17 17 18 18 18 18 19 19 19 20
28 27 25 24 23 22 21 20 20 19 18 17 16 16 15 15 15 14 14 14 13 13 14 14 14 15 16 16 17 17 18 18 19 19 19 19 19 20 20 20 20 21 21
31 29 27 26 24 23 22 22 21 20 19 18 17 17 17 17 16 16 16 15 15 15 15 15 16 17 17 18 18 18 19 19 20 20 20 21 21 21 21 21 22 22 22
32 31 29 27 26 24 23 23 22 22 20 19 19 18 18 18 17 17 17 17 17 17 17 17 17 18 18 19 19 20 20 21 21 21 21 22 22 22 22 23 23 23 23
33 32 31 29 27 26 25 24 24 23 22 21 20 19 19 19 19 18 18 18 18 18 18 19 19 19 20 21 21 21 21 21 21 22 22 22 22 23 23 23 24 24 24
33 32 32 31 29 28 27 25 25 24 24 23 22 21 21 21 21 21 20 20 19 19 20 20 21 21 22 22 22 22 22 22 22 22 22 22 23 23 24 24 24 25 26
34 33 32 31 30 29 28 27 26 26 25 24 24 23 23 23 23 22 21 21 21 21 22 22 22 22 22 22 22 22 22 22 23 23 23 23 24 24 25 25 26 27 27
34 34 32 31 30 30 29 28 28 27 27 26 25 24 24 24 24 24 23 23 23 23 24 24 24 23 23 23 23 24 24 24 24 24 24 24 25 25 26 26 27 28 29
35 34 33 32 31 30 29 28 28 28 28 27 27 26 25 26 26 26 25 25 25 25 25 25 25 24 24 25 25 25 25 25 25 26 26 26 27 27 27 28 28 29 30
35 34 34 33 32 31 30 29 29 28 28 29 28 27 26 27 27 27 27 26 26 26 26 26 26 26 27 27 27 26 26 27 27 28 28 28 28 29 29 29 30 30 31
34 34 34 33 32 32 31 29 29 29 30 30 30 29 28 28 28 28 28 28 28 27 27 28 28 28 28 28 28 28 28 29 29 29 29 29 29 30 30 31 31 31 31
33 33 34 33 32 32 31 30 30 30 31 31 31 30 30 29 29 29 29 30 30 29 29 29 29 30 30 30 29 29 30 30 30 30 30 30 30 31 31 31 31 32 31
33 33 33 33 33 32 32 31 31 31 32 32 32 31 31 30 30 30 30 30 31 31 31 31 31 31 31 31 31 31 31 31 31 31 31 32 32 32 32 32 32 32 32
33 33 33 32 32 32 33 32 32 31 32 32 32 32 32 31 30 30 30 30 31 32 33 33 33 32 33 32 32 32 32 32 32 32 33 33 33 33 33 33 33 34 34
32 33 33 32 32 32 32 32 32 32 32 31 32 32 32 31 30 31 32 32 33 34 33 33 34 34 34 34 34 34 34 34 34 34 34 34 34 34 34 35 35 36 36
32 32 32 33 32 32 32 32 32 31 31 31 32 33 33 33 32 32 33 34 34 34 34 34 34 35 35 35 36 36 36 36 36 36 36 36 36 36 36 36 37 37 37
30 31 31 31 32 33 33 33 32 32 32 33 33 34 35 35 35 35 34 35 36 36 35 35 36 36 36 36 37 37 37 37 37 37 37 37 38 38 38 39 39 40 40
28 30 31 30 31 32 33 33 34 34 33 33 35 35 36 36 37 37 36 36 35 35 35 36 37 37 37 37 37 37 38 38 38 38 38 39 40 40 40 41 41 42 42
28 28 29 30 31 31 32 32 33 34 34 35 35 36 36 37 38 38 38 37 37 36 36 37 37 38 38 38 38 38 39 39 40 41 41 41 42 42 43 43 43 44 44
28 29 29 29 30 31 31 32 32 33 35 36 36 37 37 37 38 39 40 40 39 39 38 38 39 39 39 40 41 41 42 42 43 44 44 45 45 45 45 46 46 46 47

GEFSSE_500_meanwind_168.txt.gz
Wind_Speed
19 17 16 15 14 14 13 13 13 12 12 11 10 9 9 8 8 7 7 7 6 6 5 5 5 5 4 5 5 6 6 7 7 7 7 8 8 8 9 9 10 10 10
21 19 18 17 16 15 15 14 14 13 12 12 11 10 10 9 9 8 8 8 8 7 7 7 6 6 6 6 6 7 8 8 8 9 9 10 10 10 11 11 11 11 12
23 22 20 19 18 17 16 15 15 14 13 13 12 11 10 10 10 9 9 9 9 8 8 8 8 7 8 8 8 8 9 9 10 10 11 11 11 12 12 13 13 13 13
25 23 22 21 19 19 18 16 16 15 14 14 13 12 12 11 10 10 10 10 10 9 9 9 9 9 9 9 10 10 10 11 11 12 12 12 13 13 14 14 14 14 15
27 25 24 23 21 20 19 18 17 16 15 15 14 14 13 12 12 11 11 11 11 11 11 10 11 11 11 11 11 11 12 12 13 14 14 15 15 15 15 15 16 16 16
29 27 26 24 23 22 21 19 18 17 16 16 15 15 13 13 13 13 12 12 12 12 12 12 12 12 12 12 12 12 13 14 14 15 16 16 17 17 17 17 17 17 18
31 29 27 26 25 24 22 20 19 18 18 17 17 16 15 14 14 14 13 13 13 13 13 13 13 13 13 13 13 14 14 15 16 16 17 18 18 19 19 19 19 19 19
32 30 29 28 26 25 24 22 21 19 18 18 18 17 17 16 16 16 14 14 14 14 14 14 14 14 14 14 15 15 16 17 17 18 18 19 19 19 19 19 19 19 19
34 32 31 29 28 27 25 24 22 21 20 20 19 19 18 17 17 16 16 16 15 15 15 15 15 15 16 16 17 17 18 18 19 19 19 19 20 19 20 20 20 20 20
34 33 32 31 29 28 27 25 24 23 22 22 21 20 20 19 18 17 17 17 17 16 17 17 17 18 18 19 19 20 20 20 20 20 20 20 20 20 20 21 20 21 21
36 34 33 32 30 29 27 26 25 24 23 23 22 22 21 20 19 19 19 19 19 19 19 19 20 20 20 20 21 21 21 21 21 21 21 21 22 21 21 21 22 22 22
37 35 34 33 32 30 28 27 27 26 24 24 23 23 23 21 20 20 20 20 20 20 20 21 22 22 21 21 22 22 22 22 22 22 23 23 23 23 23 23 23 24 24
37 36 34 33 32 31 30 28 28 26 25 24 24 24 24 23 21 21 21 21 22 22 22 22 23 23 22 22 22 22 22 23 24 24 25 25 25 25 25 25 25 25 25
37 36 35 34 32 32 31 30 29 28 27 26 25 25 25 24 23 23 23 23 23 23 24 24 24 24 23 23 24 24 24 25 25 26 26 26 26 27 27 26 27 27 27
37 36 36 34 33 32 32 30 30 29 28 27 27 27 26 26 25 25 25 25 24 24 25 25 25 25 25 25 25 26 26 27 27 27 27 27 28 28 27 27 27 27 28
37 36 36 35 34 33 32 32 30 30 29 28 28 28 28 27 25 26 26 26 26 25 26 26 27 27 27 27 27 28 28 28 28 28 28 28 28 28 27 27 27 28 28
37 36 35 34 34 33 33 32 32 30 29 29 29 29 29 29 28 26 27 27 27 27 27 27 28 28 29 29 29 29 29 29 29 29 29 28 28 28 28 28 28 29 29
36 34 34 34 34 34 34 33 32 31 30 30 29 29 30 30 31 29 28 28 28 28 28 28 28 29 30 30 30 31 30 30 30 29 30 30 30 30 30 30 30 30 30
35 33 33 33 34 34 34 34 33 32 31 31 31 31 31 32 32 32 31 30 29 30 30 30 30 30 31 32 32 32 32 31 30 30 30 30 30 30 30 31 31 31 32
35 34 32 33 33 33 34 34 34 34 34 33 33 33 33 33 33 32 31 31 31 31 32 32 32 32 33 33 33 33 32 32 31 31 31 31 31 32 31 31 32 33 33
35 35 34 33 32 32 32 33 34 35 35 35 34 33 33 34 34 34 32 33 33 33 33 33 33 33 33 32 32 32 33 32 32 33 33 33 33 33 33 34 34 35 35
34 34 34 33 32 32 32 33 35 35 35 36 35 35 35 34 34 36 35 34 33 33 33 32 32 32 32 31 31 32 33 34 34 34 35 35 35 36 36 37 37 38 38
32 31 31 32 32 32 33 33 34 35 35 36 36 35 34 34 35 36 38 35 34 35 34 33 32 32 32 33 33 33 34 35 35 36 36 37 38 38 39 40 40 40 41
31 31 31 31 32 32 33 34 34 34 35 35 35 35 34 35 36 37 38 37 35 35 35 34 35 35 35 35 36 36 36 36 37 37 38 39 40 41 41 42 42 43 43
28 29 29 30 31 31 32 32 33 34 34 35 35 36 36 36 36 36 37 39 37 36 36 36 36 36 37 37 38 38 39 39 40 40 40 41 42 43 43 44 44 45 45
27 28 28 29 29 29 30 31 32 33 34 34 35 36 37 37 37 37 38 39 39 39 38 37 37 37 38 39 40 40 40 41 41 42 42 42 43 44 45 46 47 47 48

GEFSSE_500_meanwind_174.txt.gz
Wind_Speed
20 19 17 16 15 14 13 13 12 12 11 11 10 10 10 9 9 8 8 8 8 7 7 6 6 6 6 6 5 5 6 6 6 7 7 8 8 9 10 10 11 11 11
23 21 19 18 16 16 15 15 14 13 13 12 12 11 11 10 10 9 9 8 8 8 7 7 7 7 7 7 7 7 7 7 8 9 9 10 10 10 11 11 12 12 12
25 23 21 20 18 17 17 16 16 15 14 14 13 13 12 11 11 10 10 9 9 9 8 8 8 8 8 8 8 9 9 9 10 10 11 11 11 11 12 12 12 13 13
27 25 23 22 20 19 18 18 17 16 16 15 14 14 13 13 12 11 11 10 10 10 10 10 10 10 10 10 10 10 10 11 11 11 12 12 12 13 13 14 14 15 15
30 28 26 24 23 21 20 19 19 18 17 16 15 15 14 14 13 12 11 11 11 11 11 11 11 11 11 11 11 11 12 12 12 12 13 13 14 15 15 15 16 17 17
32 30 28 27 25 23 22 21 20 19 18 17 16 15 15 14 14 13 13 12 12 12 12 12 13 12 12 12 13 13 13 13 13 14 14 15 15 16 16 17 17 17 18
34 32 31 29 27 26 24 23 22 21 19 18 17 16 16 15 15 14 14 13 13 13 14 14 14 14 14 13 13 13 14 14 14 15 16 16 16 17 17 18 18 18 18
35 34 32 31 29 28 26 24 23 22 21 19 18 17 17 16 16 15 15 15 15 15 15 15 15 14 15 15 15 15 15 15 15 16 17 17 17 18 18 19 19 19 19
36 36 34 33 32 30 28 26 24 23 22 21 20 19 18 18 18 17 17 16 16 16 16 16 16 16 16 16 16 16 16 16 17 18 18 18 19 19 20 20 20 20 20
37 37 36 35 33 32 29 27 26 25 24 23 22 21 20 19 19 19 19 18 19 18 18 17 17 17 17 17 17 17 18 18 18 19 19 20 20 20 21 21 21 22 22
37 37 36 35 34 33 31 28 27 26 25 24 23 22 21 21 21 20 20 20 20 20 19 18 18 19 19 19 19 19 19 19 20 20 21 21 21 22 22 22 22 23 23
38 37 38 37 36 34 31 29 28 28 27 26 25 24 23 22 22 23 22 21 21 21 21 20 20 20 20 21 20 21 21 21 21 22 22 23 23 23 23 24 24 24 24
39 37 38 36 35 34 33 31 30 29 28 27 26 26 25 24 24 24 23 23 22 22 22 22 22 22 22 22 22 22 22 23 23 24 24 24 24 25 25 25 25 24 24
40 38 37 37 35 35 34 33 31 30 29 29 28 27 26 26 26 25 25 24 24 23 23 23 23 24 24 24 24 24 24 24 24 25 25 25 25 25 25 25 24 24 24
40 39 37 37 36 35 34 33 32 31 30 30 30 29 27 27 27 26 26 26 25 25 25 25 25 26 26 26 25 25 25 25 26 26 26 26 26 25 25 24 24 24 25
41 41 38 37 36 36 34 33 33 33 32 31 31 31 30 28 28 28 27 26 26 26 26 26 27 27 26 27 26 26 27 27 26 27 27 27 26 26 26 25 25 25 26
39 40 39 37 36 35 35 34 34 33 32 31 31 31 31 31 30 30 29 28 28 28 28 27 26 27 28 28 28 28 28 28 28 28 28 28 27 27 27 27 27 27 28
38 39 38 36 35 35 34 34 34 34 33 32 32 31 31 31 31 31 31 30 29 28 28 28 27 28 29 30 31 31 31 30 29 29 29 29 29 29 29 30 30 30 30
38 37 37 36 35 34 33 34 33 35 34 33 33 32 32 32 32 32 31 31 31 30 29 30 31 31 31 31 31 32 32 31 30 30 30 31 30 30 31 31 31 32 32
38 36 36 35 34 33 33 33 33 33 34 33 34 32 31 31 31 32 32 32 32 31 31 32 32 33 33 32 32 32 32 32 32 32 33 33 32 32 32 33 33 33 34
37 36 35 34 33 32 31 31 32 33 32 32 32 32 32 32 32 33 34 34 34 33 33 34 34 34 34 33 33 33 34 34 34 34 34 34 34 34 34 35 35 35 35
35 35 35 34 32 32 31 30 31 32 33 34 34 34 34 34 33 34 34 35 36 36 36 36 35 35 35 35 35 35 36 35 35 35 35 35 36 36 36 37 37 37 37
32 33 33 33 33 33 32 31 31 32 32 33 34 34 34 34 33 34 34 35 36 37 37 37 36 36 36 36 36 36 36 36 36 36 36 37 37 38 38 39 39 39 40
30 31 32 32 32 33 32 30 30 30 32 33 33 33 35 35 35 35 36 37 37 37 38 38 38 38 37 37 37 37 37 37 37 37 38 38 39 39 40 41 41 41 42
30 31 31 31 31 32 32 31 31 32 32 32 33 33 34 35 35 36 37 38 38 38 39 38 38 38 38 38 37 37 38 38 39 39 40 40 40 41 42 43 43 44 45
29 30 30 30 31 32 31 31 31 32 32 33 33 34 35 36 37 38 38 38 38 38 38 38 38 38 38 38 38 38 38 39 40 41 41 40 40 41 43 43 44 45 46

GEFSSE_500_meanwind_180.txt.gz
Wind_Speed
23 21 20 19 18 16 15 14 13 12 11 10 9 8 7 6 6 5 5 5 5 5 4 4 4 4 5 5 5 5 5 6 6 7 8 8 9 9 9 9 9 10 10
26 24 23 21 20 18 17 16 14 13 12 11 10 9 8 8 7 7 6 6 6 6 5 5 5 5 5 5 6 6 6 7 7 8 9 9 10 10 10 10 11 11 12
28 26 25 24 22 21 19 17 16 15 14 13 12 10 9 9 8 8 7 7 7 6 6 6 6 6 6 6 7 7 7 8 8 9 10 10 11 11 12 12 12 13 13
30 28 27 26 24 22 21 19 18 17 16 15 13 12 11 10 9 9 8 8 8 7 7 6 6 7 7 8 8 8 9 9 10 10 11 12 12 13 13 13 14 14 14
32 30 29 28 26 24 23 21 20 18 17 16 15 14 12 11 11 10 9 9 8 8 8 8 8 8 9 9 9 9 10 11 11 11 12 12 13 13 14 14 15 15 16
33 32 32 30 28 26 25 23 21 20 19 18 17 16 14 13 12 11 10 10 10 9 9 9 9 10 10 10 10 11 11 12 12 12 13 13 14 14 15 15 16 16 16
35 34 33 33 31 29 27 25 23 22 20 19 18 17 16 15 14 13 12 12 11 11 11 10 10 11 12 12 12 12 12 13 13 13 13 14 15 16 16 16 17 17 18
36 36 35 34 33 31 29 27 25 23 22 21 20 18 17 16 15 14 14 13 13 12 12 12 12 12 13 13 13 13 13 14 14 14 15 15 16 17 17 17 18 18 19
37 37 36 35 34 32 30 29 27 25 24 23 22 20 18 18 17 16 15 15 14 14 13 13 13 13 14 14 14 14 14 14 15 15 16 17 17 18 18 19 19 19 20
39 38 37 36 35 34 32 30 29 27 25 24 23 21 20 19 18 18 17 16 15 15 15 15 14 14 15 15 15 15 16 16 16 16 17 18 19 19 19 20 21 21 21
40 40 38 36 36 35 34 32 31 30 27 25 24 23 21 20 19 19 18 17 17 17 17 16 16 17 17 17 17 17 17 18 18 18 19 19 20 20 21 21 22 22 22
41 41 39 38 37 36 36 35 33 31 29 26 26 25 23 22 21 20 19 19 18 18 18 18 18 18 18 18 18 19 19 19 20 20 20 21 21 21 22 22 22 23 23
41 42 40 39 38 38 36 35 34 32 31 28 27 26 25 24 22 22 21 20 20 20 20 20 19 18 19 20 20 21 21 21 22 22 22 23 23 23 23 23 23 23 23
39 42 42 40 39 39 37 35 33 32 31 30 28 27 27 26 24 23 22 22 22 22 22 21 21 20 21 21 22 22 22 23 23 24 24 24 24 24 24 24 24 24 24
38 39 41 42 40 38 37 36 34 34 32 31 30 29 28 28 27 26 25 24 23 23 22 22 22 22 23 23 23 24 24 25 25 25 26 26 25 25 25 26 26 26 26
39 38 39 41 41 38 39 37 35 34 34 32 31 30 30 29 29 28 27 26 25 25 25 25 25 25 25 25 26 26 26 27 27 27 27 27 27 27 27 27 27 27 27
39 41 39 38 40 39 38 37 37 35 34 33 31 31 30 30 30 30 29 28 27 27 27 27 27 26 27 27 28 29 28 28 28 28 28 29 29 29 29 29 29 29 29
39 40 41 38 38 38 37 36 36 36 35 34 32 32 31 31 31 31 30 29 28 28 28 28 28 28 28 29 30 30 30 29 29 29 30 30 30 30 31 31 31 31 31
38 39 39 38 37 37 36 35 33 33 33 34 33 32 32 32 32 31 31 30 30 29 29 29 29 30 30 30 30 31 31 31 31 32 32 32 32 32 32 32 32 32 33
36 38 38 38 36 36 36 35 33 33 33 33 33 32 32 32 32 31 31 30 30 31 31 31 31 31 31 32 32 32 32 33 33 33 33 33 33 33 33 33 33 34 34
35 37 37 36 35 35 35 34 34 33 32 32 32 32 33 33 33 33 32 32 31 31 32 33 33 33 33 33 33 33 33 34 34 34 34 34 34 34 34 35 35 35 35
34 36 38 36 36 36 35 33 33 32 32 32 33 34 34 34 34 34 34 32 32 33 33 34 34 34 35 35 34 34 34 34 35 35 35 35 36 36 36 36 36 37 37
33 33 36 36 34 34 36 35 34 32 30 31 33 34 35 35 34 35 34 33 33 33 34 35 35 36 36 36 36 36 36 36 36 36 36 36 37 37 37 38 38 39 39
31 32 34 35 35 33 34 35 35 31 31 32 33 34 34 35 34 34 34 34 34 35 36 36 37 37 37 37 38 37 37 36 36 36 37 37 38 38 39 39 40 40 41
28 30 32 32 33 32 31 32 32 31 32 32 32 32 33 33 33 33 34 35 35 36 36 36 37 38 38 38 38 38 38 38 37 37 37 38 40 40 41 41 42 42 42
28 28 29 30 31 32 32 31 30 30 31 31 32 32 33 34 34 34 33 34 35 36 37 37 37 39 39 39 39 39 40 40 40 40 40 40 40 41 42 42 43 42 42

GEFSSE_500_meanwind_186.txt.gz
Wind_Speed
24 23 22 21 20 20 19 18 17 16 16 15 14 13 12 11 10 9 8 7 6 5 5 4 4 4 3 2 2 1 2 2 2 3 4 5 5 6 6 7 7 8 8
26 25 24 23 22 22 21 19 18 17 17 16 15 14 13 12 11 10 9 8 7 6 6 5 5 4 4 3 3 2 2 2 3 4 5 5 6 7 7 8 8 8 8
28 27 26 25 25 23 22 21 20 19 19 18 17 16 14 13 13 12 11 10 9 7 7 6 5 5 4 4 3 3 3 4 4 4 5 6 7 7 8 9 9 9 9
30 29 29 28 27 26 24 23 22 22 20 19 19 18 16 15 14 13 12 11 10 9 8 7 6 6 5 4 4 4 4 4 5 5 6 7 8 8 9 9 9 10 10
32 32 31 30 29 28 27 25 24 24 22 21 20 19 18 17 16 15 13 12 11 10 9 8 7 7 6 6 5 5 6 6 6 6 7 8 8 9 9 10 10 11 11
34 34 33 32 31 30 29 28 26 25 24 23 22 20 19 18 17 16 15 14 13 12 10 10 9 8 8 7 7 7 7 7 7 8 8 9 9 10 10 11 11 12 12
37 36 35 34 34 33 31 30 29 27 25 24 24 22 21 20 18 17 16 15 14 13 12 11 11 10 9 8 8 8 8 8 8 9 9 10 10 11 11 12 12 13 13
38 38 38 36 36 35 33 31 30 29 27 26 26 24 23 21 20 19 17 16 15 15 13 13 12 11 10 10 9 9 9 9 10 10 10 11 11 12 13 13 14 14 14
38 39 40 39 38 37 36 33 32 30 30 28 27 26 25 23 22 20 19 18 17 16 15 14 14 13 11 11 10 10 11 11 11 11 11 12 12 13 14 14 15 15 15
38 39 40 41 39 38 38 35 33 32 31 30 28 27 27 25 23 22 21 19 18 17 16 16 15 14 13 12 12 12 12 12 12 13 13 14 14 15 15 16 16 16 17
38 39 40 40 40 40 39 37 35 34 32 31 30 29 27 26 25 23 22 21 20 18 18 17 16 15 15 14 14 14 14 14 14 14 15 15 16 16 17 17 17 18 18
39 39 40 40 41 41 41 39 36 35 33 32 32 30 28 27 26 25 24 22 21 20 19 18 17 17 16 16 16 16 16 16 16 16 16 17 18 18 18 18 19 19 19
39 39 40 41 42 41 42 41 38 37 35 33 32 32 30 28 26 25 25 24 23 22 21 20 19 18 18 18 18 18 18 18 18 18 18 19 19 19 20 20 20 21 21
40 40 40 41 42 42 43 43 41 39 38 35 33 32 31 29 27 26 26 25 24 24 23 22 21 20 19 19 19 20 21 21 20 20 20 20 21 21 21 22 23 23 23
39 40 41 41 42 42 43 44 42 39 38 36 35 35 33 31 29 27 27 26 26 25 24 23 23 22 21 21 21 21 21 21 22 22 22 22 22 23 23 24 24 24 24
39 40 41 42 43 43 44 44 41 39 38 37 35 34 34 32 30 28 28 27 26 26 25 25 24 24 23 22 22 21 22 22 22 23 23 24 24 25 25 26 26 26 26
39 40 41 40 42 44 45 45 41 40 39 37 36 34 33 32 30 29 28 27 28 27 27 26 25 24 25 24 24 23 23 24 25 25 25 25 26 27 27 27 27 28 29
38 39 41 41 41 43 44 45 42 40 38 37 35 33 32 32 32 30 29 28 29 29 29 29 27 27 26 25 25 25 25 25 26 27 27 28 28 28 28 29 29 30 31
36 38 39 41 41 41 43 42 40 38 38 36 35 34 33 33 33 32 30 29 29 29 30 29 29 28 28 28 27 27 27 27 28 29 29 30 30 30 30 30 31 31 32
34 37 39 39 39 39 40 40 40 39 38 36 35 35 34 33 32 32 30 29 29 30 31 31 31 30 30 29 29 29 29 30 30 31 30 31 32 32 33 33 33 33 34
33 37 39 39 39 39 40 39 37 38 39 37 36 35 34 33 32 32 31 31 31 32 33 33 33 32 32 31 31 31 30 30 30 32 32 33 33 34 34 34 35 35 35
29 33 36 36 38 39 40 39 37 37 38 38 37 36 34 33 33 32 32 31 32 32 33 34 35 35 34 33 33 32 32 33 32 32 33 34 34 35 35 36 36 36 37
28 31 32 33 34 36 38 38 38 36 37 38 36 35 34 33 33 33 34 34 33 33 34 35 35 36 35 35 34 34 34 34 35 35 34 35 36 36 37 38 38 39 39
26 29 30 31 32 33 35 36 35 35 36 37 36 34 32 32 32 34 34 35 35 34 34 35 36 37 37 37 37 37 38 37 37 37 37 37 38 38 38 38 39 40 40
25 27 28 30 32 33 33 33 34 33 35 36 37 35 33 33 33 34 34 35 36 36 35 35 35 37 37 37 38 39 39 39 39 38 39 39 40 39 40 39 40 40 41
24 25 26 26 28 30 31 30 31 31 33 34 35 36 35 35 35 34 35 35 36 37 38 38 38 38 38 39 39 40 40 40 40 40 39 40 40 41 41 41 41 41 42

GEFSSE_500_meanwind_192.txt.gz
Wind_Speed
25 25 24 23 22 22 21 20 19 19 18 17 16 15 15 14 14 14 13 12 11 10 9 9 8 7 6 5 4 4 3 2 1 2 1 1 2 3 3 4 5 5 5
27 27 27 26 25 24 23 22 21 20 19 19 18 17 16 16 15 14 14 13 12 11 10 9 9 8 7 6 6 5 4 3 2 2 1 2 3 3 4 4 5 6 7
29 29 29 28 27 26 25 23 23 22 21 20 20 19 18 17 16 16 15 15 14 12 11 10 10 9 8 7 6 5 4 4 3 3 2 3 4 4 4 5 6 7 8
31 31 30 30 29 28 27 25 24 23 23 22 21 21 20 19 18 17 17 16 15 14 13 12 11 10 10 9 7 6 5 5 4 4 4 4 5 5 5 6 6 8 8
33 32 32 32 31 31 30 28 26 25 24 23 23 23 22 21 20 19 18 17 17 16 15 13 12 11 11 10 9 8 6 6 5 6 6 6 6 6 6 7 7 8 9
34 34 34 34 33 33 32 30 29 27 26 26 24 24 24 22 21 20 19 19 18 17 16 15 14 13 12 11 10 9 8 7 7 7 7 7 7 7 7 7 8 9 10
35 35 35 35 35 35 34 33 31 30 28 28 27 26 25 24 23 22 20 20 20 19 17 17 16 15 13 13 12 11 10 9 8 8 9 8 8 8 9 9 10 11 11
37 36 36 36 37 37 36 35 34 32 31 30 29 28 26 26 25 23 21 21 21 20 19 18 17 16 15 14 13 12 11 10 10 10 10 10 10 10 10 11 11 12 12
37 38 38 37 37 38 38 38 37 36 34 31 30 29 28 28 27 25 23 22 22 21 20 19 19 18 17 16 15 14 13 12 11 11 11 11 12 12 12 12 12 13 13
38 38 39 39 39 39 39 39 38 38 36 34 33 31 30 29 29 27 26 25 23 22 21 21 20 19 18 17 16 15 14 13 13 13 13 13 13 13 14 14 14 14 14
37 38 38 39 39 39 40 40 40 39 38 36 34 33 32 31 30 29 27 26 24 23 22 22 22 20 19 18 18 17 16 15 15 15 15 15 15 14 15 15 15 15 16
37 38 39 38 38 40 41 41 41 41 39 39 36 34 33 32 32 31 30 28 26 24 23 22 22 22 21 20 19 18 17 17 16 16 16 16 16 15 16 16 17 17 17
37 39 40 39 39 40 39 41 41 41 40 39 38 36 34 34 34 32 31 30 28 26 24 23 23 23 22 21 20 19 19 18 18 18 17 17 17 17 17 18 18 19 19
37 38 40 40 40 40 39 39 41 41 41 40 39 37 35 35 36 34 33 32 30 28 27 25 25 24 23 22 21 21 20 20 20 20 19 19 19 19 19 20 20 20 21
36 37 40 41 41 41 40 39 40 41 42 41 39 38 37 36 36 35 34 34 33 30 29 27 26 25 25 24 23 22 22 21 21 22 22 21 21 21 22 22 22 22 22
34 35 37 41 41 41 40 39 39 40 41 41 40 39 38 36 36 35 34 34 34 33 31 29 28 27 26 25 24 23 23 23 23 23 23 23 23 24 24 24 24 24 24
32 34 36 38 40 41 42 40 39 40 41 42 42 40 38 36 36 35 33 34 34 34 32 30 30 29 28 27 26 25 25 25 24 24 24 24 24 25 25 26 26 26 26
30 32 33 36 39 40 41 41 39 40 41 43 43 42 40 38 37 36 34 34 33 33 31 31 30 29 28 28 27 27 26 26 25 25 25 26 26 26 26 27 27 27 27
29 31 32 34 37 40 41 41 39 40 40 41 43 43 41 39 37 37 36 35 33 32 32 31 31 30 30 29 28 28 28 28 28 27 27 27 28 28 28 29 29 29 29
26 27 30 31 34 37 41 40 39 41 40 41 42 42 41 39 37 35 35 34 33 33 32 32 32 32 32 31 30 30 29 29 29 29 29 29 29 29 29 29 30 30 31
24 26 27 29 30 34 38 39 39 40 40 41 41 40 40 39 38 36 35 35 34 34 34 33 33 34 34 34 33 32 31 30 30 30 30 30 29 30 30 31 31 32 32
21 24 25 27 29 33 36 37 36 38 39 41 41 39 39 39 37 36 35 35 34 34 33 34 35 35 35 35 35 34 33 32 32 32 32 32 32 32 32 32 33 34 34
18 20 23 25 28 31 35 36 34 37 39 39 40 40 38 39 39 38 37 37 36 35 35 35 35 35 35 36 36 36 35 34 34 34 35 35 35 36 36 36 35 36 36
17 19 21 23 27 30 32 34 35 36 38 38 39 39 39 38 38 38 37 36 36 36 36 35 36 36 35 36 36 36 37 36 36 36 37 37 38 38 38 37 37 38 39
16 18 20 22 25 28 31 32 33 34 35 37 38 38 39 39 38 38 38 38 38 37 37 36 37 36 36 36 37 37 37 38 39 38 38 38 39 39 40 39 39 39 40
16 18 20 21 22 25 28 29 31 33 35 36 36 36 37 37 37 38 39 39 38 37 37 37 38 38 38 38 38 39 39 41 42 42 41 40 40 41 41 40 40 41 42

GEFSSE_500_meanwind_198.txt.gz
Wind_Speed
21 21 21 21 21 21 21 21 20 19 19 18 18 17 17 16 16 16 15 14 14 13 13 12 11 11 10 9 8 7 7 6 5 4 4 3 3 3 2 1 2 2 3
23 23 23 23 23 23 23 23 23 22 21 20 19 19 18 18 17 16 16 16 15 15 14 14 13 12 11 10 9 8 7 6 5 5 4 4 4 3 3 3 3 3 4
25 25 25 25 25 25 25 25 25 24 23 22 21 20 20 19 19 18 17 17 17 16 16 15 14 14 13 12 11 10 8 7 6 5 5 4 4 4 4 4 4 4 5
26 27 27 28 28 28 28 27 27 26 25 24 23 23 22 21 20 20 19 18 18 18 18 17 16 15 14 13 12 11 10 8 7 6 5 5 5 5 5 5 5 5 6
28 29 29 29 30 30 30 29 29 29 28 27 25 25 24 23 22 21 21 20 20 19 19 18 18 17 16 14 13 12 11 10 8 7 6 6 6 7 6 6 6 7 7
29 30 30 31 32 32 32 31 31 31 31 29 28 26 26 25 24 23 23 22 21 21 20 20 19 18 17 16 15 14 13 11 9 8 8 8 8 8 8 8 8 8 8
30 31 32 32 33 34 34 33 33 34 33 32 30 29 28 27 26 25 25 24 23 22 22 21 20 20 19 18 17 16 14 13 11 10 10 9 9 9 9 9 9 9 9
31 32 32 33 34 34 35 35 35 35 35 34 32 31 30 29 28 27 27 26 25 23 22 22 22 21 20 19 18 17 16 14 13 12 11 11 10 11 11 10 10 11 11
33 32 33 35 35 36 36 36 36 37 37 36 34 33 32 31 30 29 29 28 27 25 23 23 23 22 22 20 19 18 17 16 14 14 13 13 12 12 12 12 12 12 12
34 34 33 36 36 36 37 37 38 38 38 38 37 35 34 32 31 31 31 30 28 27 26 25 24 24 23 22 21 20 19 18 16 15 15 14 14 14 14 14 14 13 14
33 35 34 36 37 37 37 37 38 39 39 39 39 38 36 35 34 33 33 32 30 29 28 27 26 24 24 23 22 21 20 19 18 17 16 16 15 15 15 15 15 15 15
33 34 35 35 37 38 37 37 37 38 39 40 40 39 38 37 35 34 34 34 32 31 29 28 27 26 25 24 23 23 22 21 19 18 18 17 17 17 17 17 16 16 16
32 33 35 36 36 37 37 37 37 38 39 39 39 40 39 38 38 35 35 35 34 33 31 31 29 27 27 26 25 24 23 22 21 20 20 19 18 18 18 18 18 18 18
32 33 34 35 36 37 37 38 38 38 38 38 39 40 40 39 39 37 35 35 35 35 33 32 31 29 28 27 26 25 24 24 22 22 21 21 20 20 20 20 20 19 19
31 32 33 35 36 37 37 38 38 38 39 38 39 40 41 41 40 39 37 36 36 35 34 33 33 32 30 29 28 27 26 25 24 23 23 23 22 22 22 22 21 21 21
29 31 32 34 35 35 37 37 37 37 38 38 40 41 41 42 41 39 38 38 36 36 36 35 34 34 32 31 29 28 28 26 26 25 24 24 24 23 24 24 23 23 24
28 30 32 34 35 35 36 38 38 39 38 38 40 42 42 42 42 41 40 39 38 37 37 36 35 34 35 33 31 30 29 29 27 27 26 26 25 25 25 25 25 26 26
26 28 30 33 34 34 34 37 40 40 40 40 40 42 43 43 43 43 41 41 39 38 38 37 36 36 36 36 34 32 31 30 29 28 27 27 27 27 27 27 27 27 27
24 26 28 30 32 33 33 35 37 39 40 41 40 41 43 43 43 43 42 42 41 39 38 37 38 37 37 37 36 34 33 31 30 29 29 29 29 29 29 28 29 29 28
22 24 26 27 31 33 32 33 34 37 39 41 41 41 43 44 43 42 42 41 40 38 38 37 37 37 37 37 36 35 34 33 32 31 31 31 31 31 30 30 30 31 30
21 23 23 26 29 31 31 32 34 36 38 40 41 40 42 44 43 42 43 41 40 40 40 38 37 38 38 38 37 36 36 35 34 33 34 33 33 33 33 33 34 34 33
19 20 22 24 27 29 30 31 32 34 36 37 40 38 40 42 43 42 42 42 40 40 40 40 38 38 37 38 39 39 38 37 36 36 36 36 36 35 36 35 36 36 37
17 18 19 23 25 26 28 29 30 32 35 37 38 37 37 39 41 42 42 43 43 41 40 40 39 39 38 39 40 41 41 40 39 38 38 38 37 37 37 37 37 38 37
16 17 18 21 23 24 27 29 28 29 31 35 38 38 37 38 40 42 42 42 42 42 41 40 40 40 40 40 40 40 40 40 40 39 39 40 40 39 39 39 40 40 39
17 18 18 20 22 23 25 27 28 28 30 33 36 38 38 39 40 42 44 43 41 40 41 41 41 41 41 41 41 41 41 40 40 41 40 40 40 41 41 41 42 42 41
17 18 19 21 21 22 22 25 27 28 29 31 34 37 38 37 38 40 43 44 42 40 40 41 41 42 42 41 41 41 41 41 41 41 41 41 41 42 42 42 43 43 44

GEFSSE_500_meanwind_204.txt.gz
Wind_Speed
20 20 20 19 19 18 18 18 17 18 17 17 17 16 15 14 14 13 13 13 12 11 11 10 10 10 10 10 9 8 7 7 6 5 5 4 4 4 3 3 3 3 3
22 22 22 21 21 21 20 20 19 19 19 19 19 18 18 17 16 15 14 14 14 13 12 12 12 11 11 11 11 10 8 7 7 6 6 5 5 5 4 4 4 4 3
23 23 23 23 23 23 22 22 21 21 20 21 20 20 19 19 18 17 17 16 16 15 15 14 14 13 13 12 12 11 10 9 8 7 6 5 5 5 5 5 5 5 4
24 24 24 25 24 24 24 24 23 23 22 22 22 22 21 21 20 20 19 18 18 18 17 16 15 15 15 14 13 13 11 10 9 8 7 6 6 6 6 5 6 6 6
26 26 26 26 25 25 25 26 25 25 24 23 23 24 23 22 22 21 21 20 19 19 19 19 18 16 16 16 15 14 13 12 11 9 8 7 7 7 6 6 7 6 7
27 27 28 28 28 27 26 27 27 27 27 26 25 26 25 24 24 23 23 22 21 20 20 20 20 18 18 18 17 16 15 14 13 11 10 9 8 7 7 8 8 7 8
29 29 29 30 30 30 28 28 29 29 29 29 28 28 28 27 26 25 25 24 24 23 21 21 21 21 20 19 19 18 17 16 14 13 11 10 9 9 9 9 9 8 9
30 31 31 31 31 31 31 30 30 31 31 31 30 30 30 30 28 27 26 26 26 25 24 23 22 23 22 21 20 19 18 17 16 15 13 12 11 10 10 10 10 10 10
30 32 33 33 33 33 33 32 32 32 32 32 32 31 31 31 31 30 29 28 28 27 26 25 24 23 24 23 22 21 19 18 18 16 15 14 13 12 12 12 12 12 12
31 32 34 34 34 35 34 34 33 33 33 33 34 33 33 33 32 32 31 30 30 29 28 27 26 25 25 24 24 23 21 20 19 18 17 16 15 15 14 14 14 13 13
31 32 35 35 35 35 35 35 35 34 35 34 34 35 35 34 33 33 33 32 32 31 30 29 28 27 26 26 26 25 24 22 21 20 18 18 17 16 16 16 15 15 15
30 32 34 36 36 36 36 36 36 35 36 36 35 36 36 35 34 34 34 34 34 33 32 31 30 29 28 27 28 27 25 24 23 22 21 19 19 18 17 17 17 16 16
30 32 34 36 37 37 37 37 37 37 37 37 37 37 37 36 36 35 35 35 35 34 34 33 32 31 30 28 29 29 27 25 24 24 23 21 20 20 19 19 18 18 17
31 32 34 36 38 38 37 37 37 37 38 38 38 38 38 37 37 37 36 37 36 36 36 34 33 33 32 31 29 30 29 27 26 25 24 23 23 22 22 21 21 20 20
30 31 33 35 37 39 39 38 38 37 37 38 38 38 39 39 38 37 37 37 37 37 37 36 34 34 34 33 32 31 30 29 28 26 25 25 25 24 24 23 23 22 22
30 30 31 32 35 37 39 39 39 38 37 37 37 39 39 39 38 38 37 37 37 38 38 38 36 34 34 35 35 34 32 31 29 28 27 27 26 26 25 25 24 23 23
29 28 29 31 32 34 36 37 38 38 39 37 36 37 38 38 38 38 39 38 38 38 38 38 37 37 37 35 35 35 35 34 32 30 29 28 28 28 27 27 26 26 25
28 28 29 30 31 33 34 36 37 37 37 38 38 37 38 39 39 39 40 40 39 39 39 39 39 38 38 38 37 36 35 35 34 32 30 29 29 30 29 28 28 28 28
27 28 29 29 29 31 33 34 36 36 36 37 38 38 39 39 39 39 40 41 41 40 41 40 39 39 39 39 39 38 37 35 35 35 33 32 31 31 31 31 30 30 30
26 27 27 28 28 29 31 33 35 35 34 35 36 37 38 40 40 39 41 41 42 42 42 43 42 41 40 39 40 40 39 38 37 37 35 33 32 32 32 32 32 32 32
25 25 25 26 27 27 28 31 34 34 33 34 35 37 38 39 40 39 41 41 42 42 42 41 41 41 41 40 40 41 39 39 38 38 37 36 35 34 34 34 34 35 34
23 22 22 23 24 25 27 29 31 32 32 32 34 36 38 40 41 40 40 41 42 42 43 43 42 42 42 41 40 40 39 39 39 39 39 37 36 36 36 35 36 36 36
22 21 20 21 23 24 25 26 28 31 31 30 32 34 36 39 41 42 40 42 42 43 42 42 41 42 42 42 42 41 40 40 40 40 40 39 38 37 37 37 37 37 37
21 21 21 21 22 24 25 26 27 29 31 31 32 34 36 37 40 43 41 42 43 43 43 43 42 42 42 42 41 41 41 41 42 42 41 41 40 39 39 39 38 39 38
21 21 21 21 22 23 24 25 26 28 30 31 31 32 34 36 39 41 42 43 44 44 45 45 44 43 43 43 42 42 42 42 43 43 42 41 41 42 42 41 41 40 41
22 22 22 22 23 24 24 25 26 27 29 31 31 32 33 34 37 39 40 41 43 44 45 45 45 45 43 43 43 43 43 42 42 42 43 42 42 42 43 41 41 42 42

GEFSSE_500_meanwind_210.txt.gz
Wind_Speed
19 19 18 18 18 18 18 17 17 17 17 17 17 16 16 15 14 13 13 13 13 12 12 13 12 12 12 12 12 11 10 10 9 8 7 7 6 5 4 4 3 3 2
20 20 20 19 19 19 19 19 18 18 18 18 18 18 17 17 16 15 14 14 14 14 14 13 13 14 13 13 13 12 12 11 10 9 8 8 7 6 5 5 4 4 3
21 21 21 21 21 21 21 21 21 20 19 19 20 20 19 18 18 17 16 16 15 15 16 15 15 15 14 14 14 14 13 12 11 10 9 8 8 7 7 6 5 5 4
23 23 23 22 22 22 22 22 22 22 22 21 21 21 21 20 20 19 18 18 17 17 17 16 16 16 15 16 15 15 14 13 12 11 10 9 9 8 7 7 5 5 5
24 25 25 24 24 24 24 24 24 24 23 23 23 23 22 22 22 22 21 20 19 19 18 18 18 18 17 17 17 16 16 15 14 12 11 10 9 9 8 7 6 6 6
25 26 26 26 26 26 26 26 25 26 25 25 26 25 24 24 23 23 23 22 21 21 20 20 20 19 20 19 18 18 17 17 16 14 13 11 10 10 9 8 7 7 7
26 26 27 27 28 28 28 27 27 27 27 27 27 28 27 26 26 25 25 24 24 23 23 22 22 21 21 21 20 20 19 18 17 16 15 13 12 11 10 9 9 8 8
27 28 27 28 28 29 29 29 29 29 29 29 29 30 30 29 28 28 27 27 26 25 24 24 23 23 23 23 22 22 21 20 19 18 17 15 14 13 12 11 10 10 9
28 29 29 29 29 29 30 31 30 30 30 30 31 32 32 32 31 30 29 29 28 28 27 26 25 25 25 24 24 23 23 22 21 20 19 17 16 15 14 13 12 11 11
28 29 30 30 30 30 31 31 31 31 31 32 33 33 33 33 33 32 31 30 30 30 29 28 27 27 27 26 25 25 24 24 23 22 21 20 18 17 16 15 14 13 13
29 30 30 31 31 31 31 32 32 32 33 33 34 34 35 35 34 33 33 32 31 31 30 30 29 28 28 28 28 27 26 25 24 23 23 22 21 19 18 17 16 15 15
29 30 31 32 32 32 33 33 34 33 33 34 35 35 36 36 36 35 35 34 33 33 32 32 31 30 29 30 30 29 28 28 26 25 24 24 23 22 21 19 18 17 17
30 30 31 32 33 34 35 35 36 36 35 35 37 37 37 36 36 37 37 36 35 35 34 34 33 32 31 31 31 31 31 29 28 27 26 25 25 24 23 21 20 19 19
30 31 32 33 34 35 36 37 37 37 36 36 37 38 38 38 38 38 38 38 37 36 36 35 34 34 33 33 33 32 32 31 30 29 27 26 27 26 24 23 22 21 20
30 31 33 33 35 36 36 37 38 38 37 37 38 39 39 39 39 40 40 40 39 38 38 37 36 36 35 34 34 34 34 33 32 31 30 28 27 28 27 25 24 23 22
29 30 32 33 34 35 36 36 37 38 38 38 38 40 41 40 39 40 40 40 40 39 39 38 38 37 36 36 35 35 36 35 34 33 32 31 29 29 28 28 27 25 25
28 28 30 31 31 33 34 34 35 35 37 38 37 38 40 40 40 40 39 39 40 41 40 40 39 39 38 38 38 37 36 36 36 36 35 33 32 31 30 29 29 28 27
26 26 27 28 29 30 31 32 32 33 34 36 36 36 37 37 39 40 40 39 40 41 41 41 41 40 39 39 39 39 38 37 37 37 36 35 34 33 32 31 30 30 29
26 26 26 27 28 29 29 30 31 32 33 34 36 36 36 36 38 39 39 40 41 42 42 41 41 41 41 41 40 40 40 39 38 38 37 36 36 35 34 34 33 32 32
26 26 27 27 28 29 30 31 32 32 33 34 35 36 37 37 38 39 39 40 41 42 43 42 42 42 42 42 42 41 40 40 39 39 39 39 38 37 36 35 35 34 33
27 26 26 27 29 30 31 31 32 32 33 33 34 35 36 37 39 39 40 42 42 41 42 43 42 42 43 43 43 43 42 42 41 41 40 40 40 39 38 37 36 35 35
27 27 27 27 27 28 29 31 32 33 32 33 34 35 36 37 39 40 40 41 42 42 43 43 42 42 43 43 43 44 43 43 43 43 41 41 41 40 39 39 38 37 36
27 27 27 27 28 29 29 30 32 33 34 34 34 35 36 37 38 39 40 42 42 43 43 43 42 42 42 42 42 43 44 44 43 42 42 41 40 40 40 39 39 39 38
27 27 28 28 29 30 30 30 30 31 32 33 33 34 35 36 37 39 40 41 42 42 43 43 43 43 43 44 44 45 45 44 44 43 43 42 41 41 41 40 40 40 40
28 28 27 28 29 29 29 29 30 31 31 32 33 33 33 34 35 37 38 40 41 42 44 44 43 44 45 45 45 44 45 45 46 46 45 44 44 44 44 43 42 41 41
27 27 27 28 28 29 29 29 30 30 30 31 31 32 33 33 34 35 36 37 39 41 43 43 44 45 45 46 46 46 46 46 46 46 46 46 45 44 44 44 44 43 42

GEFSSE_500_meanwind_216.txt.gz
Wind_Speed
18 18 18 18 18 18 18 18 17 17 17 17 17 17 17 16 15 14 14 13 13 13 12 12 12 12 11 11 11 10 10 9 9 8 8 6 5 5 4 4 3 2 1
20 20 19 19 19 19 19 19 18 18 18 17 18 18 18 18 17 15 15 15 14 14 14 13 13 13 13 12 12 11 11 11 10 9 9 8 7 6 5 4 4 3 3
21 21 21 21 20 20 20 20 20 20 19 19 19 19 19 19 19 18 17 16 16 15 16 15 15 15 14 14 13 13 12 12 12 11 10 9 8 7 6 6 5 5 4
23 23 23 23 22 22 21 21 22 22 21 21 21 20 20 20 20 20 19 18 17 17 17 17 16 16 16 15 15 14 13 13 13 12 11 10 9 9 8 7 6 6 5
24 24 24 25 24 24 23 23 23 23 23 22 23 22 22 22 21 21 21 21 20 19 18 18 18 18 18 17 17 16 15 15 14 13 13 12 11 10 9 8 7 7 6
25 25 25 26 26 25 25 25 25 24 24 24 24 24 24 24 23 22 22 22 22 22 21 20 20 19 19 18 18 19 18 16 15 15 14 14 13 12 11 10 9 8 8
25 25 26 26 26 26 27 26 26 26 25 25 25 25 25 25 25 24 24 24 23 23 23 22 22 21 20 20 19 19 20 18 17 17 16 15 15 14 13 11 11 10 9
25 25 26 26 27 27 27 28 27 27 26 27 27 27 27 26 26 26 26 25 25 25 24 24 24 23 23 22 21 20 20 20 19 19 18 17 17 16 15 13 13 12 10
26 27 26 26 27 28 28 29 29 28 28 28 28 28 28 28 28 27 27 27 27 27 26 26 26 26 25 24 24 23 22 22 21 21 20 19 19 18 17 15 14 14 12
26 27 27 27 27 28 28 29 29 30 29 29 29 29 29 29 29 28 28 29 29 29 28 28 28 27 27 27 26 25 24 23 23 23 22 21 21 20 19 18 16 16 15
27 28 28 29 29 29 29 29 30 30 30 30 30 30 30 30 30 30 30 30 31 31 30 30 30 29 29 28 28 27 25 25 25 25 25 24 23 22 21 20 19 17 16
29 29 30 30 30 31 31 31 31 31 31 31 31 31 30 30 31 31 31 31 32 32 32 32 31 31 30 29 30 29 28 27 26 26 26 26 25 24 23 23 21 20 19
29 30 30 31 31 32 33 33 33 33 33 32 32 32 32 31 31 31 32 31 32 33 33 33 32 32 32 31 31 31 30 29 28 28 27 27 27 26 26 25 24 23 22
29 30 30 30 31 32 33 34 35 35 34 34 33 33 33 33 33 33 32 33 32 34 35 35 34 33 33 33 32 32 32 31 31 30 28 29 28 28 27 27 25 25 24
29 30 31 31 31 32 33 34 35 35 36 35 35 35 35 35 35 34 34 34 34 34 35 36 36 35 34 34 34 34 33 33 33 33 31 31 30 30 30 29 28 27 26
29 30 30 31 32 32 33 34 35 35 35 36 36 35 36 36 36 36 36 35 36 36 36 36 37 37 36 35 35 36 35 34 35 34 33 33 32 32 31 31 30 29 28
28 29 30 31 32 33 33 33 34 34 35 36 36 35 35 36 36 36 36 37 37 37 37 38 38 38 38 37 37 37 37 36 36 36 35 35 35 34 33 32 32 32 31
28 29 30 30 31 32 32 33 33 34 34 34 35 35 35 35 36 37 37 37 38 38 38 38 39 39 39 39 39 39 39 39 38 37 37 37 37 36 35 34 34 34 34
28 28 29 30 30 31 31 32 33 34 34 33 34 35 35 36 36 37 37 38 38 39 39 39 40 40 41 40 41 40 40 41 41 40 39 39 38 38 38 37 36 35 35
28 28 29 30 30 30 31 32 33 33 33 34 34 34 34 35 36 37 37 36 37 39 40 40 40 42 42 42 42 42 42 43 43 42 41 40 40 39 39 39 38 37 37
29 29 29 30 30 30 30 31 32 33 33 34 35 35 34 35 36 37 37 37 37 38 39 41 41 42 42 43 43 43 43 44 43 43 42 42 41 41 41 41 40 40 39
29 29 29 29 30 30 30 31 32 33 34 34 35 35 36 36 36 37 37 36 37 38 39 41 41 42 43 43 43 44 45 45 45 43 43 42 42 42 42 41 41 41 41
29 29 29 29 30 30 30 31 32 33 34 34 35 35 36 36 36 37 36 36 37 38 39 41 42 42 43 43 45 46 46 46 45 45 44 45 44 43 41 42 43 42 42
29 29 29 30 30 31 31 32 32 32 33 33 34 34 35 35 36 37 36 36 37 38 39 41 42 43 43 43 45 46 46 46 46 46 46 46 45 43 43 43 43 42 42
29 29 29 30 31 31 31 31 31 31 32 33 33 34 35 35 36 37 36 36 37 38 39 40 42 43 44 45 46 46 46 47 47 46 45 44 45 45 44 44 44 44 44
29 29 29 30 30 31 31 31 30 31 32 32 33 33 34 35 36 36 35 35 36 38 39 41 41 42 43 44 44 45 45 46 46 46 46 45 45 45 45 46 46 46 46

GEFSSE_500_meanwind_222.txt.gz
Wind_Speed
15 15 15 15 15 15 16 16 16 16 16 16 16 16 15 15 15 15 15 14 13 13 12 12 13 12 12 11 11 11 11 11 10 9 8 7 6 5 4 4 3 3 3
17 17 17 17 16 16 16 17 17 17 17 17 17 17 17 17 16 16 16 16 15 14 14 14 14 13 13 13 13 12 12 12 11 10 10 9 8 7 6 5 4 4 3
19 19 19 18 18 18 18 18 18 18 18 18 18 19 18 18 18 18 17 17 17 16 15 15 15 15 14 14 14 14 14 13 13 12 11 10 9 8 7 7 6 6 5
20 20 20 20 20 20 20 20 20 19 19 19 19 20 19 19 19 20 19 19 18 17 17 17 16 16 16 16 16 15 15 15 15 14 13 12 11 10 9 8 7 7 6
21 21 22 22 21 22 22 22 21 21 21 21 21 21 21 21 20 20 20 19 20 19 19 18 19 18 18 17 17 17 17 16 16 15 15 14 13 12 10 9 9 8 8
22 22 22 22 22 23 23 23 23 23 23 23 22 22 22 22 22 21 22 21 21 20 21 20 20 20 19 18 18 18 18 18 17 17 16 15 14 13 12 11 11 10 9
23 23 23 23 23 23 24 24 24 24 25 24 24 24 24 24 23 23 23 23 23 22 22 21 21 21 21 20 20 20 20 19 19 19 18 17 16 15 14 13 12 12 11
24 24 25 25 24 24 24 25 25 26 26 26 26 25 25 25 25 24 24 24 24 24 23 22 22 23 22 22 22 21 21 21 21 21 20 20 18 17 16 16 15 14 13
25 25 25 25 25 25 25 25 26 26 26 27 27 27 27 27 26 26 25 25 25 25 25 24 24 24 24 24 24 23 23 22 22 22 22 22 21 19 19 18 17 17 16
27 27 26 26 26 26 26 26 26 26 27 27 28 28 28 28 28 28 27 27 26 25 26 26 25 25 26 26 25 25 25 24 23 23 23 24 23 22 21 20 19 19 18
27 28 27 27 27 27 27 27 26 27 27 27 28 29 29 29 29 29 28 28 28 28 28 27 27 27 27 27 27 27 27 27 26 25 25 25 25 24 24 23 22 21 20
28 28 28 28 28 29 29 28 28 27 27 27 28 29 30 30 30 30 30 30 30 29 29 29 29 29 29 29 29 29 29 28 28 27 27 26 26 25 25 25 24 23 23
28 28 29 28 29 30 31 30 30 29 29 29 29 30 31 31 32 32 32 31 31 31 31 31 30 29 30 30 31 31 31 30 30 30 29 28 27 27 26 26 26 26 25
28 28 29 28 29 30 31 31 31 31 31 31 31 31 32 32 33 33 33 33 33 32 32 32 32 31 31 32 33 33 33 33 32 32 31 31 30 29 28 28 28 28 27
27 28 28 28 28 30 31 31 32 32 32 33 33 33 33 34 34 34 34 34 34 33 33 33 32 33 33 33 33 34 35 34 35 34 34 33 33 32 31 31 30 30 29
27 28 28 29 29 30 30 31 32 33 33 33 34 34 34 34 35 35 35 35 35 35 35 35 35 34 34 34 34 35 35 35 36 36 36 35 35 34 34 34 33 32 32
27 28 29 29 29 30 30 31 32 32 33 33 34 35 35 35 35 36 36 36 36 36 36 37 36 36 36 35 35 35 36 36 37 37 37 36 36 36 36 36 36 35 34
28 28 28 28 29 30 31 31 32 33 33 34 34 35 35 35 35 35 36 36 36 37 37 37 38 38 38 37 37 36 36 36 36 37 37 37 37 37 38 38 38 38 36
28 28 28 28 29 29 30 31 32 33 34 34 34 34 35 35 35 35 37 37 37 37 37 38 38 37 38 39 38 38 38 38 38 38 39 38 39 39 39 40 40 40 38
28 28 28 28 28 29 30 30 31 33 34 35 35 35 35 36 36 36 37 37 37 37 38 38 39 39 39 40 40 40 40 40 40 40 40 40 41 41 41 41 42 42 41
29 29 28 28 28 28 29 30 31 32 33 34 36 36 36 36 37 38 38 37 38 38 38 39 39 40 40 40 42 42 42 41 41 41 41 42 42 43 42 43 44 43 43
29 29 29 29 29 29 29 30 31 32 33 34 35 35 36 36 36 37 37 38 38 38 38 39 39 40 40 40 42 43 44 44 43 43 43 44 44 45 45 44 45 45 45
30 30 30 30 30 30 29 30 31 31 33 34 34 35 35 35 35 35 36 36 37 37 38 38 39 40 40 41 42 43 45 45 44 45 45 45 46 46 46 46 46 46 47
31 30 30 31 31 31 31 30 30 31 31 32 33 34 34 34 34 34 35 35 36 37 37 37 38 40 41 42 43 44 45 46 47 47 47 47 47 47 48 48 47 47 47
31 31 31 31 32 32 31 32 31 31 31 32 33 33 33 34 34 35 35 35 36 36 37 37 38 39 40 42 43 44 45 46 47 48 48 48 48 48 48 48 48 48 48
30 31 31 31 31 32 32 32 32 32 33 33 33 33 33 34 34 35 36 36 36 37 37 38 38 39 40 42 43 44 45 46 47 48 49 49 49 49 49 48 49 48 48

GEFSSE_500_meanwind_228.txt.gz
Wind_Speed
15 15 15 15 14 14 14 14 13 13 14 14 14 14 13 12 12 11 11 11 11 10 10 10 9 9 9 9 9 9 9 8 8 7 7 6 5 4 4 3 2 2 2
17 17 17 16 16 16 16 15 15 15 15 15 15 15 15 14 13 13 12 12 12 12 11 11 11 11 11 10 11 11 10 10 9 9 8 7 7 6 5 4 3 3 3
19 18 18 18 18 17 17 17 17 17 16 16 16 16 16 15 15 15 14 14 14 13 13 13 13 12 12 12 11 12 12 12 11 11 10 9 8 7 6 5 5 4 4
21 20 19 19 19 19 18 18 18 18 18 17 17 17 17 17 17 16 16 15 15 15 14 14 14 14 13 13 12 13 13 13 13 12 12 11 10 9 8 7 7 6 5
21 21 20 20 20 20 20 19 19 19 19 18 18 18 17 17 18 17 17 17 16 16 16 16 16 16 15 14 14 14 15 15 15 14 14 13 12 11 11 10 9 8 7
22 21 21 21 21 21 21 21 21 21 21 20 20 19 19 18 18 18 18 18 18 17 17 17 17 18 17 16 16 15 16 17 16 16 15 15 14 14 13 12 11 10 9
23 23 22 22 23 23 22 22 21 22 22 22 22 21 21 20 20 20 20 19 19 19 19 18 18 18 18 18 17 17 17 17 17 17 17 17 16 15 15 14 13 13 12
24 23 24 24 24 24 23 23 22 23 23 24 24 24 23 23 22 21 21 21 21 20 20 20 19 20 19 18 18 18 18 18 19 18 18 18 18 18 17 16 15 15 14
25 25 25 25 25 25 24 24 24 24 24 25 26 25 25 25 24 23 23 22 22 22 22 21 21 20 21 20 20 19 19 20 20 20 20 19 19 19 19 19 17 17 16
27 27 26 26 26 25 26 25 25 25 25 25 26 27 26 26 26 26 25 24 24 23 23 23 23 22 22 22 22 22 21 21 21 21 22 22 21 21 21 20 20 19 18
27 28 28 28 27 27 27 26 26 25 25 25 26 27 28 28 27 27 27 26 26 25 24 24 24 24 24 23 23 24 24 23 23 23 23 23 23 23 23 23 22 22 21
27 28 29 29 28 28 28 28 27 26 26 26 26 26 27 28 29 29 28 28 27 27 27 26 26 26 26 25 25 25 25 25 25 25 25 24 25 25 25 25 24 24 23
28 28 28 28 29 29 30 30 29 28 28 27 27 27 27 28 29 29 29 29 28 28 28 28 28 28 27 27 27 26 26 27 28 28 27 26 26 27 27 27 27 26 25
29 29 29 29 29 30 30 31 31 30 30 30 30 29 28 28 28 29 29 29 29 29 29 29 29 30 29 29 28 28 28 28 29 29 30 29 29 29 29 29 28 28 28
29 29 30 30 30 30 31 31 31 31 31 31 31 31 31 30 30 30 30 30 30 30 30 31 30 31 31 31 30 30 30 30 30 31 31 31 31 31 31 31 30 30 30
29 30 30 31 31 31 31 31 31 31 32 32 32 33 32 32 31 31 31 31 31 31 31 31 31 31 31 32 32 31 31 32 32 32 32 33 32 32 33 33 32 33 33
30 30 31 31 31 31 31 31 31 32 32 32 33 33 33 33 32 33 33 33 32 32 32 33 33 32 32 32 33 32 32 32 33 33 33 34 34 34 34 35 35 35 35
30 30 30 31 31 31 31 31 31 32 32 33 33 33 33 33 33 34 34 34 34 33 33 34 34 34 33 33 33 34 33 34 34 34 34 34 34 34 35 36 37 37 37
31 30 30 31 31 31 31 31 31 31 32 32 33 34 34 34 34 34 35 35 35 35 35 35 35 35 35 34 34 34 34 34 35 35 35 35 35 35 35 36 37 37 37
33 32 32 31 31 31 32 32 32 32 32 33 34 34 35 35 35 36 36 36 36 36 36 37 36 37 37 36 35 36 36 36 35 35 36 37 37 37 37 37 37 37 38
34 33 33 33 33 33 32 33 33 33 33 33 34 35 35 36 36 36 36 36 37 37 37 37 37 37 38 38 38 37 38 37 37 37 37 37 38 38 39 39 39 39 40
35 34 34 34 33 33 34 34 34 34 34 35 35 35 35 36 36 37 37 36 36 37 37 38 38 38 39 39 39 39 39 39 39 39 39 39 39 40 41 41 41 41 42
35 35 35 34 34 34 34 35 35 34 34 35 35 35 36 37 37 37 36 36 36 37 37 38 38 38 38 38 38 39 40 40 40 41 41 41 41 42 42 43 44 44 44
36 36 35 35 34 34 35 35 35 35 35 35 36 36 37 37 37 36 36 37 37 38 38 38 39 39 39 39 39 39 39 39 41 42 42 42 43 44 45 45 45 45 46
37 36 36 36 35 35 35 35 35 35 36 36 36 37 38 38 38 37 37 38 38 38 38 39 40 39 39 40 40 40 40 40 40 42 42 43 44 44 45 46 46 45 47
37 37 36 36 36 36 36 36 36 35 35 36 36 37 38 38 39 40 39 39 38 38 38 39 40 40 40 40 41 41 41 42 41 41 41 42 44 45 47 48 47 46 46

GEFSSE_500_meanwind_234.txt.gz
Wind_Speed
16 15 15 16 15 15 15 15 15 15 15 15 15 16 15 14 14 14 13 13 12 11 11 11 11 10 9 10 10 9 9 8 8 7 7 6 5 5 4 3 3 3 4
18 17 17 17 17 17 16 16 16 16 16 16 16 17 17 16 15 15 14 14 14 13 13 12 12 11 11 11 10 10 10 10 9 9 8 8 7 6 5 4 4 4 4
20 19 18 18 18 18 18 17 17 17 17 17 18 18 18 17 16 16 15 15 15 14 14 14 13 13 12 12 12 12 11 12 11 10 10 9 9 8 7 6 6 5 5
21 20 20 20 20 20 19 19 19 19 19 19 19 19 19 18 18 17 17 16 16 16 15 15 15 14 14 14 14 14 13 13 13 12 12 11 10 10 9 8 8 7 7
22 22 22 21 21 21 21 21 20 20 20 20 20 21 20 20 19 19 18 18 18 17 17 16 16 16 15 15 15 15 14 14 15 14 13 13 12 12 11 11 10 10 9
23 23 23 22 22 22 22 22 22 22 22 22 22 22 21 21 21 20 20 20 19 19 18 18 18 18 17 17 17 16 16 16 16 16 15 15 14 14 13 13 12 12 11
24 23 23 23 22 22 23 23 22 22 23 23 24 24 23 23 23 22 21 21 21 21 20 20 19 19 19 19 18 18 18 17 17 17 17 17 16 16 15 15 14 14 13
25 25 25 24 24 23 23 24 24 23 24 24 24 25 25 24 24 24 23 22 22 22 22 21 21 21 21 21 20 20 19 19 18 18 18 18 18 17 17 16 16 16 15
26 26 26 26 26 26 25 25 25 25 25 25 26 25 26 26 25 25 24 24 23 23 23 23 22 22 22 22 22 21 21 21 20 19 19 19 19 19 18 18 18 18 17
27 27 27 27 27 27 27 27 27 26 26 26 27 27 27 27 27 26 26 25 25 24 24 24 23 23 23 23 23 23 23 22 21 21 21 21 21 20 20 20 19 19 19
27 27 27 28 28 29 29 28 28 27 27 27 27 28 28 28 28 28 28 27 26 26 26 25 25 25 24 24 24 24 24 23 22 22 23 22 22 22 22 21 21 21 21
28 28 28 28 28 29 29 29 29 28 28 27 27 27 28 28 28 28 28 28 28 27 27 27 26 26 26 26 26 26 26 25 25 24 24 24 24 24 24 23 23 23 22
29 29 29 29 29 30 29 29 29 29 29 29 28 27 27 27 28 28 28 29 29 29 28 28 28 27 27 27 27 27 27 27 26 26 25 25 26 26 26 26 26 25 25
30 30 30 30 30 31 30 30 29 29 30 30 29 28 28 27 27 28 28 28 29 29 29 29 29 28 28 28 28 29 29 28 28 28 27 27 27 27 27 27 27 27 27
31 31 31 31 32 32 32 32 31 30 30 30 30 30 30 29 29 29 29 29 29 29 29 30 30 30 29 29 29 29 29 29 29 29 29 28 28 28 28 28 29 28 28
33 33 33 33 33 33 33 32 32 32 31 32 31 31 31 31 31 31 31 31 30 30 30 30 30 30 30 30 31 31 31 31 31 30 30 30 30 30 31 31 31 31 31
34 34 35 35 34 34 34 33 33 33 32 32 33 33 33 33 33 33 33 33 32 31 31 31 31 31 31 30 31 32 32 33 33 33 32 33 32 32 32 32 32 32 32
35 36 36 36 35 35 35 35 35 34 34 33 33 34 34 34 34 34 34 34 34 33 33 32 32 32 32 32 32 32 33 33 34 33 33 33 33 34 33 33 33 34 34
36 37 37 37 37 37 36 35 35 35 35 35 35 35 35 34 34 34 35 35 35 35 35 34 34 33 33 33 33 33 33 33 34 34 34 34 34 34 34 34 35 35 35
37 38 38 38 38 38 37 36 35 36 36 36 36 36 36 35 35 35 35 36 36 36 35 35 35 35 34 34 34 34 35 35 34 34 34 35 35 35 35 35 35 36 36
37 38 39 40 40 39 39 38 37 37 37 37 37 37 37 37 36 36 36 37 36 36 36 36 36 36 36 36 36 36 36 36 35 35 35 36 36 36 36 36 37 37 37
38 39 39 40 41 40 39 39 39 38 37 37 37 37 37 37 37 37 37 38 37 37 37 37 37 37 37 38 38 37 38 37 37 37 37 37 38 38 38 37 37 38 38
39 39 40 40 41 41 40 40 40 39 38 37 37 37 37 38 37 37 37 38 38 37 38 38 38 38 38 38 38 38 38 38 38 38 39 39 39 40 40 40 40 40 40
39 39 40 40 41 41 41 41 41 40 39 37 36 37 38 38 37 38 38 38 38 39 39 39 39 39 38 39 39 39 39 39 39 39 39 40 41 41 41 41 41 42 42
39 39 39 40 41 41 41 42 41 41 40 39 38 38 38 38 38 38 38 38 39 39 39 39 39 40 40 40 40 40 40 41 40 40 40 40 41 41 42 42 42 42 42
39 39 39 40 41 41 41 42 42 42 42 41 40 40 39 39 39 39 39 39 39 39 39 40 40 40 40 41 41 42 41 41 41 42 41 41 42 42 43 43 44 43 43

GEFSSE_500_meanwind_240.txt.gz
Wind_Speed
16 16 16 16 16 16 16 16 16 16 15 15 15 14 14 14 13 13 13 13 12 12 11 11 10 10 10 9 9 9 9 8 7 7 6 5 5 4 3 2 2 2 3
17 17 18 17 17 17 17 17 17 17 16 16 16 15 15 15 15 14 14 14 13 13 13 12 12 11 11 11 10 10 10 10 9 9 8 7 6 5 5 4 3 3 3
19 19 19 19 19 19 19 18 18 18 18 17 17 17 17 17 16 16 16 15 15 15 14 14 13 13 13 12 12 11 11 11 11 10 10 9 8 8 7 6 5 5 4
21 21 21 20 20 20 19 19 19 19 19 18 18 18 18 18 18 17 17 17 17 16 16 15 15 15 14 14 13 13 13 13 12 12 11 11 10 10 9 8 7 7 6
22 22 22 22 22 21 21 20 20 20 20 20 19 19 19 19 19 19 18 18 18 17 17 17 16 16 16 15 15 14 14 14 14 13 12 12 12 11 11 10 9 9 8
22 23 23 23 23 22 22 22 22 22 21 21 21 21 21 21 21 20 19 19 19 18 18 18 18 18 17 17 17 16 16 15 15 15 14 13 13 13 13 12 11 11 10
24 24 24 24 24 24 24 23 23 23 22 22 22 22 22 23 23 22 21 20 20 20 20 19 19 19 19 18 18 18 17 17 17 16 16 15 15 15 14 14 13 13 12
25 25 25 26 26 25 25 24 24 24 24 23 23 23 23 24 25 24 23 23 22 21 21 20 20 20 19 19 19 19 19 18 18 18 17 17 17 16 16 15 15 15 14
26 26 26 26 27 27 27 26 25 25 25 25 24 24 25 25 26 25 25 25 24 23 22 22 21 21 21 21 21 20 20 20 19 19 19 18 18 18 17 17 17 16 16
27 27 28 28 28 27 27 27 27 26 26 26 26 26 26 26 27 26 26 26 26 25 24 23 22 22 22 22 23 23 22 22 21 20 20 19 19 19 19 19 18 18 18
28 28 29 29 29 29 29 29 28 28 27 27 27 27 27 27 27 27 27 27 27 27 26 26 25 24 24 23 24 24 24 24 23 22 22 21 21 21 21 20 20 20 20
29 29 30 30 30 30 30 29 29 29 29 28 28 27 27 28 29 29 29 28 28 28 28 27 27 26 26 25 25 26 26 26 25 24 23 23 23 23 23 22 22 22 21
30 30 31 31 31 31 31 30 30 29 29 29 29 29 28 28 28 29 29 29 29 29 28 28 28 27 27 27 27 27 27 27 26 25 25 25 24 24 24 24 24 24 24
32 32 32 32 32 32 32 31 31 30 30 29 29 29 29 28 28 28 28 29 29 29 29 29 29 28 28 27 28 28 27 27 27 27 26 26 25 25 25 25 25 25 25
33 33 34 34 33 33 33 33 33 32 32 31 30 30 30 29 29 29 28 28 29 29 29 29 29 30 29 28 28 28 28 28 27 27 27 28 27 26 26 25 25 26 26
34 34 35 35 34 34 34 34 34 34 34 33 32 32 32 31 30 30 29 29 29 29 29 29 30 30 30 30 29 29 28 28 29 29 28 28 29 28 27 26 26 26 27
35 35 35 35 35 35 35 35 36 35 35 35 34 34 34 33 32 31 31 30 30 29 30 30 31 31 31 31 31 30 30 30 30 29 29 29 29 29 28 28 28 28 29
36 36 37 37 37 36 36 36 36 36 36 36 36 35 35 35 34 33 33 32 31 31 30 31 31 31 31 31 31 32 31 31 31 31 31 31 30 29 29 29 29 30 30
38 37 37 37 38 38 38 37 37 37 38 37 37 36 35 36 35 35 34 33 33 32 32 31 32 32 32 31 31 31 32 32 32 32 32 32 31 31 31 31 31 31 32
38 38 38 38 38 38 38 38 39 39 39 39 38 37 36 36 37 36 35 35 35 34 34 33 32 33 33 33 32 32 32 32 32 32 32 32 32 33 32 32 32 32 33
39 39 39 39 40 40 40 39 40 40 40 39 38 37 37 37 37 37 37 37 36 36 36 36 35 34 34 34 34 34 34 33 33 33 33 33 33 33 33 33 33 34 34
40 40 40 40 41 42 42 41 41 41 41 40 39 38 39 38 38 38 38 38 38 38 38 37 37 36 36 35 35 35 35 35 35 34 34 34 34 34 34 34 35 34 34
41 41 41 42 42 43 43 42 42 41 42 42 41 40 40 40 39 39 39 39 39 38 38 38 37 37 37 37 37 36 36 36 36 36 36 36 36 36 36 36 36 35 35
42 42 42 42 43 44 44 44 44 43 42 42 42 41 42 41 40 41 40 40 40 40 39 39 38 38 38 38 38 37 37 37 38 37 37 36 36 37 37 37 37 37 37
42 42 43 44 44 45 45 45 45 44 44 44 44 43 43 43 42 42 41 41 41 41 40 40 40 39 39 39 39 39 38 38 38 38 38 38 38 38 38 38 38 38 38
43 43 44 44 45 45 46 46 46 45 45 45 45 44 43 43 43 43 43 43 42 41 40 41 41 41 40 41 40 40 40 39 39 39 38 38 39 39 38 38 38 39 39

GEFSSE_500_meanwind_246.txt.gz
Wind_Speed
13 13 14 14 14 14 14 14 13 13 13 13 13 13 13 13 12 12 12 12 12 12 12 11 11 10 10 9 9 8 8 7 7 6 6 6 5 4 4 4 3 3 4
16 15 15 15 15 15 15 15 15 15 14 14 14 14 14 14 14 13 14 14 13 13 13 12 12 12 11 11 10 10 9 9 8 8 8 7 7 6 5 5 5 4 4
17 17 17 16 16 16 16 17 17 16 16 16 16 16 16 16 16 16 15 15 15 14 14 14 13 13 12 12 11 11 11 10 10 9 9 9 9 8 8 7 6 6 6
18 18 18 18 17 17 17 18 18 18 17 17 17 17 17 17 17 17 17 16 15 15 15 15 15 15 14 14 13 13 12 12 12 11 10 10 11 10 10 9 8 8 8
18 18 19 19 19 19 19 19 19 19 19 19 19 18 18 18 18 18 18 17 17 16 17 16 16 16 16 15 15 14 14 14 14 13 12 12 12 12 11 11 11 10 10
19 19 20 20 20 20 20 21 21 21 21 21 21 20 20 19 19 19 19 19 18 18 18 17 17 17 17 16 16 16 15 15 15 15 14 13 13 14 13 13 12 12 11
21 21 21 21 22 22 21 22 22 22 22 22 22 22 21 21 21 21 21 20 20 20 20 19 19 19 18 18 18 17 16 16 16 16 16 15 15 14 15 15 14 14 13
23 23 23 23 23 23 23 23 23 23 23 23 23 23 23 23 23 23 23 22 22 22 22 21 21 19 19 19 19 19 19 18 18 17 17 16 16 16 16 15 15 15 15
24 24 24 24 24 25 25 24 24 24 24 24 24 24 24 24 24 24 24 24 23 23 23 23 22 22 21 21 21 20 20 20 19 19 18 18 18 18 17 17 16 16 16
25 25 25 26 26 26 26 27 26 26 26 26 26 26 26 25 26 26 26 26 25 25 25 24 24 24 24 23 23 22 21 21 21 20 20 20 20 19 19 19 18 18 18
27 27 27 28 28 28 28 28 28 28 28 28 27 27 27 27 27 27 27 27 26 26 26 25 25 25 25 25 24 24 23 23 23 22 22 22 22 21 21 20 20 19 19
28 28 29 29 30 30 30 30 30 29 29 29 29 28 28 27 27 28 29 29 28 28 27 27 26 26 26 26 26 26 25 25 25 24 24 24 24 23 23 22 22 21 21
30 30 30 31 31 31 31 31 31 31 31 30 30 30 29 28 28 29 29 29 29 29 29 28 28 27 27 27 27 27 27 27 27 26 26 26 26 25 25 24 24 23 22
32 32 32 32 32 32 33 32 32 32 31 31 31 30 30 29 29 29 30 30 30 30 30 30 30 29 29 29 29 28 28 28 28 28 27 27 27 27 26 26 25 25 25
33 33 34 34 34 34 34 34 33 33 33 33 32 32 31 31 30 31 31 31 31 31 31 31 30 30 30 29 29 29 29 29 28 28 28 28 28 27 27 27 26 27 27
34 35 35 35 35 35 35 35 35 35 35 35 34 33 33 33 32 32 32 32 32 32 32 32 31 31 30 30 30 29 29 29 28 28 28 28 28 28 28 28 27 27 28
36 36 36 37 37 37 37 37 37 37 37 36 36 35 35 34 34 34 33 33 33 33 33 33 33 33 32 31 30 30 30 30 30 30 29 29 29 29 29 29 29 29 29
38 38 37 38 38 38 38 38 37 37 37 37 37 36 36 36 36 36 35 35 34 34 34 34 34 34 33 32 32 32 32 31 31 31 31 30 31 30 30 30 30 30 30
39 39 39 39 39 39 39 39 39 38 38 38 38 37 37 37 38 37 37 36 36 35 35 35 34 34 34 34 33 33 33 33 32 32 32 32 32 32 31 31 31 31 31
41 41 41 40 40 40 40 40 40 40 40 39 39 39 39 39 39 39 38 38 37 37 36 36 36 35 35 35 35 34 34 34 34 33 33 33 33 33 33 33 33 32 32
43 43 42 42 42 41 41 41 42 42 41 41 41 41 41 41 40 40 40 40 39 38 38 38 37 37 36 36 36 36 36 35 35 34 34 34 34 34 34 34 34 34 34
44 44 44 44 43 43 43 43 42 43 43 43 42 42 42 42 42 42 42 41 41 40 40 39 39 38 38 38 37 38 38 37 37 37 36 35 35 35 35 35 36 35 35
45 45 44 44 44 44 44 44 44 45 45 45 44 44 44 44 43 43 43 43 42 41 41 40 40 40 40 40 40 39 39 38 38 38 37 36 35 35 36 36 36 36 36
46 45 45 45 45 45 45 46 46 47 46 45 46 45 46 46 45 45 45 44 43 43 43 42 41 41 41 41 41 41 40 40 38 38 37 37 36 37 37 37 37 37 37
46 46 46 46 46 46 47 46 46 46 47 47 48 48 47 47 47 47 47 46 45 45 44 44 43 42 42 42 42 42 41 40 39 39 38 37 38 38 38 38 38 38 38
46 47 47 47 48 48 48 47 47 47 47 47 48 49 48 48 48 49 48 47 47 46 45 45 45 44 43 43 43 42 42 41 40 40 40 39 39 39 39 39 39 39 39